Time,TemperatureF,DewpointF,PressureIn,WindDirection,WindDirectionDegrees,WindSpeedMPH,WindSpeedGustMPH,Humidity,HourlyPrecipIn,Conditions,Clouds,dailyrainin,SoftwareType,DateUTC
2013-02-07 00:00:00,70.0,62.5,30.12,South,183,0.0,0.0,77,0.00,,---,0.00,VWS V14.01,2013-02-07 05:00:00,
2013-02-07 00:05:00,70.0,62.5,30.12,South,187,0.0,0.0,77,0.00,,---,0.00,VWS V14.01,2013-02-07 05:05:00,
2013-02-07 00:10:00,69.8,62.3,30.12,SSW,200,3.1,3.1,77,0.00,,---,0.00,VWS V14.01,2013-02-07 05:10:00,
2013-02-07 00:11:00,69.8,62.3,30.12,SSW,199,0.0,0.0,77,0.00,,---,0.00,VWS V14.01,2013-02-07 05:11:00,
2013-02-07 00:15:00,69.8,62.3,30.12,SSW,199,0.0,0.0,77,0.00,,---,0.00,VWS V14.01,2013-02-07 05:15:00,
2013-02-07 00:16:00,69.8,62.3,30.12,SSW,199,0.0,0.0,77,0.00,,---,0.00,VWS V14.01,2013-02-07 05:16:00,
2013-02-07 00:20:00,69.8,62.3,30.12,SSE,161,2.7,2.7,77,0.00,,---,0.00,VWS V14.01,2013-02-07 05:20:00,
2013-02-07 00:21:00,69.8,62.3,30.12,SSE,161,2.7,2.7,77,0.00,,---,0.00,VWS V14.01,2013-02-07 05:21:00,
2013-02-07 00:25:00,69.8,62.3,30.12,SSE,161,2.7,2.7,77,0.00,,---,0.00,VWS V14.01,2013-02-07 05:25:00,
2013-02-07 00:26:00,69.8,62.3,30.12,SSE,161,2.7,2.7,77,0.00,,---,0.00,VWS V14.01,2013-02-07 05:26:00,
2013-02-07 00:31:00,69.8,62.3,30.12,South,184,3.1,3.1,77,0.00,,---,0.00,VWS V14.01,2013-02-07 05:31:00,
2013-02-07 00:36:00,69.8,62.3,30.12,South,184,3.1,3.1,77,0.00,,---,0.00,VWS V14.01,2013-02-07 05:36:00,
2013-02-07 00:41:00,69.8,62.3,30.12,SSW,197,0.0,0.0,77,0.00,,---,0.00,VWS V14.01,2013-02-07 05:41:00,
2013-02-07 00:46:00,69.8,62.3,30.12,SSW,197,0.0,0.0,77,0.00,,---,0.00,VWS V14.01,2013-02-07 05:46:00,
2013-02-07 00:47:00,69.8,62.3,30.12,SSW,197,0.0,0.0,77,0.00,,---,0.00,VWS V14.01,2013-02-07 05:47:00,
2013-02-07 00:51:00,69.8,62.3,30.12,SSW,195,0.0,0.0,77,0.00,,---,0.00,VWS V14.01,2013-02-07 05:51:00,
2013-02-07 00:52:00,69.8,62.3,30.12,SSW,195,0.0,0.0,77,0.00,,---,0.00,VWS V14.01,2013-02-07 05:52:00,
2013-02-07 00:56:00,69.6,62.5,30.12,SSW,195,0.0,0.0,78,0.00,,---,0.00,VWS V14.01,2013-02-07 05:56:00,
2013-02-07 00:57:00,69.6,62.5,30.12,SSW,195,0.0,0.0,78,0.00,,---,0.00,VWS V14.01,2013-02-07 05:57:00,
2013-02-07 01:01:00,69.6,62.5,30.12,SSE,164,3.1,3.1,78,0.00,,---,0.00,VWS V14.01,2013-02-07 06:01:00,
2013-02-07 01:02:00,69.4,62.3,30.12,SSE,164,3.1,3.1,78,0.00,,---,0.00,VWS V14.01,2013-02-07 06:02:00,
2013-02-07 01:06:00,69.4,62.3,30.12,SSE,164,3.1,3.1,78,0.00,,---,0.00,VWS V14.01,2013-02-07 06:06:00,
2013-02-07 01:07:00,69.4,62.3,30.12,SSE,164,3.1,3.1,78,0.00,,---,0.00,VWS V14.01,2013-02-07 06:07:00,
2013-02-07 01:11:00,69.4,62.3,30.12,South,182,2.7,2.7,78,0.00,,---,0.00,VWS V14.01,2013-02-07 06:11:00,
2013-02-07 01:12:00,69.4,62.3,30.12,South,182,2.7,2.7,78,0.00,,---,0.00,VWS V14.01,2013-02-07 06:12:00,
2013-02-07 01:16:00,69.4,62.3,30.12,South,182,2.7,2.7,78,0.00,,---,0.00,VWS V14.01,2013-02-07 06:16:00,
2013-02-07 01:17:00,69.4,62.3,30.12,South,182,2.7,2.7,78,0.00,,---,0.00,VWS V14.01,2013-02-07 06:17:00,
2013-02-07 01:21:00,69.1,61.9,30.12,South,181,0.0,0.0,78,0.00,,---,0.00,VWS V14.01,2013-02-07 06:21:00,
2013-02-07 01:22:00,69.1,61.9,30.12,South,181,0.0,0.0,78,0.00,,---,0.00,VWS V14.01,2013-02-07 06:22:00,
2013-02-07 01:26:00,69.1,61.9,30.12,South,181,0.0,0.0,78,0.00,,---,0.00,VWS V14.01,2013-02-07 06:26:00,
2013-02-07 01:27:00,69.1,61.9,30.12,South,181,0.0,0.0,78,0.00,,---,0.00,VWS V14.01,2013-02-07 06:27:00,
2013-02-07 01:32:00,68.9,61.8,30.12,South,181,0.0,0.0,78,0.00,,---,0.00,VWS V14.01,2013-02-07 06:32:00,
2013-02-07 01:37:00,68.9,61.8,30.12,South,181,0.0,0.0,78,0.00,,---,0.00,VWS V14.01,2013-02-07 06:37:00,
2013-02-07 01:42:00,68.9,61.8,30.12,South,181,0.0,0.0,78,0.00,,---,0.00,VWS V14.01,2013-02-07 06:42:00,
2013-02-07 01:47:00,68.7,62.0,30.12,South,181,0.0,0.0,79,0.00,,---,0.00,VWS V14.01,2013-02-07 06:47:00,
2013-02-07 01:48:00,68.7,62.0,30.12,South,181,0.0,0.0,79,0.00,,---,0.00,VWS V14.01,2013-02-07 06:48:00,
2013-02-07 01:52:00,68.7,62.0,30.09,South,181,0.0,0.0,79,0.00,,---,0.00,VWS V14.01,2013-02-07 06:52:00,
2013-02-07 01:53:00,68.7,62.0,30.09,South,181,0.0,0.0,79,0.00,,---,0.00,VWS V14.01,2013-02-07 06:53:00,
2013-02-07 01:57:00,68.7,62.0,30.09,South,181,0.0,0.0,79,0.00,,---,0.00,VWS V14.01,2013-02-07 06:57:00,
2013-02-07 01:58:00,68.7,62.0,30.09,South,181,0.0,0.0,79,0.00,,---,0.00,VWS V14.01,2013-02-07 06:58:00,
2013-02-07 02:02:00,68.7,62.0,30.09,South,181,0.0,0.0,79,0.00,,---,0.00,VWS V14.01,2013-02-07 07:02:00,
2013-02-07 02:03:00,68.7,62.0,30.09,South,181,0.0,0.0,79,0.00,,---,0.00,VWS V14.01,2013-02-07 07:03:00,
2013-02-07 02:08:00,68.7,62.0,30.09,South,181,0.0,0.0,79,0.00,,---,0.00,VWS V14.01,2013-02-07 07:08:00,
2013-02-07 02:13:00,68.7,62.0,30.09,South,181,0.0,0.0,79,0.00,,---,0.00,VWS V14.01,2013-02-07 07:13:00,
2013-02-07 02:18:00,68.7,62.0,30.09,South,181,0.0,0.0,79,0.00,,---,0.00,VWS V14.01,2013-02-07 07:18:00,
2013-02-07 02:19:00,68.7,62.0,30.09,South,181,0.0,0.0,79,0.00,,---,0.00,VWS V14.01,2013-02-07 07:19:00,
2013-02-07 02:23:00,68.7,62.0,30.09,South,181,0.0,0.0,79,0.00,,---,0.00,VWS V14.01,2013-02-07 07:23:00,
2013-02-07 02:24:00,68.7,62.0,30.09,South,181,0.0,0.0,79,0.00,,---,0.00,VWS V14.01,2013-02-07 07:24:00,
2013-02-07 02:28:00,68.7,62.0,30.09,South,181,0.0,0.0,79,0.00,,---,0.00,VWS V14.01,2013-02-07 07:28:00,
2013-02-07 02:29:00,68.7,62.0,30.09,South,181,0.0,0.0,79,0.00,,---,0.00,VWS V14.01,2013-02-07 07:29:00,
2013-02-07 02:33:00,68.7,62.0,30.09,South,181,0.0,0.0,79,0.00,,---,0.00,VWS V14.01,2013-02-07 07:33:00,
2013-02-07 02:34:00,68.7,62.0,30.09,South,181,0.0,0.0,79,0.00,,---,0.00,VWS V14.01,2013-02-07 07:34:00,
2013-02-07 02:38:00,68.7,62.0,30.09,South,181,0.0,0.0,79,0.00,,---,0.00,VWS V14.01,2013-02-07 07:38:00,
2013-02-07 02:39:00,68.7,62.0,30.09,South,181,0.0,0.0,79,0.00,,---,0.00,VWS V14.01,2013-02-07 07:39:00,
2013-02-07 02:44:00,68.7,62.0,30.09,South,181,0.0,0.0,79,0.00,,---,0.00,VWS V14.01,2013-02-07 07:44:00,
2013-02-07 02:49:00,68.7,62.0,30.09,South,181,0.0,0.0,79,0.00,,---,0.00,VWS V14.01,2013-02-07 07:49:00,
2013-02-07 02:54:00,68.7,62.0,30.09,South,181,0.0,0.0,79,0.00,,---,0.00,VWS V14.01,2013-02-07 07:54:00,
2013-02-07 02:59:00,68.7,62.0,30.09,South,181,0.0,0.0,79,0.00,,---,0.00,VWS V14.01,2013-02-07 07:59:00,
2013-02-07 03:04:00,68.7,62.0,30.09,South,179,0.0,0.0,79,0.00,,---,0.00,VWS V14.01,2013-02-07 08:04:00,
2013-02-07 03:09:00,68.7,62.0,30.09,South,179,0.0,0.0,79,0.00,,---,0.00,VWS V14.01,2013-02-07 08:09:00,
2013-02-07 03:10:00,68.7,62.0,30.09,South,179,0.0,0.0,79,0.00,,---,0.00,VWS V14.01,2013-02-07 08:10:00,
2013-02-07 03:14:00,68.4,61.6,30.09,South,179,0.0,0.0,79,0.00,,---,0.00,VWS V14.01,2013-02-07 08:14:00,
2013-02-07 03:15:00,68.4,62.0,30.09,South,179,0.0,0.0,80,0.00,,---,0.00,VWS V14.01,2013-02-07 08:15:00,
2013-02-07 03:19:00,68.4,62.0,30.09,SSE,158,0.0,0.0,80,0.00,,---,0.00,VWS V14.01,2013-02-07 08:19:00,
2013-02-07 03:20:00,68.4,62.0,30.09,South,169,0.0,0.0,80,0.00,,---,0.00,VWS V14.01,2013-02-07 08:20:00,
2013-02-07 03:24:00,68.4,62.0,30.09,South,169,0.0,0.0,80,0.00,,---,0.00,VWS V14.01,2013-02-07 08:24:00,
2013-02-07 03:25:00,68.4,62.0,30.09,South,169,0.0,0.0,80,0.00,,---,0.00,VWS V14.01,2013-02-07 08:25:00,
2013-02-07 03:29:00,68.4,61.6,30.09,South,169,0.0,0.0,79,0.00,,---,0.00,VWS V14.01,2013-02-07 08:29:00,
2013-02-07 03:30:00,68.4,61.6,30.09,South,169,0.0,0.0,79,0.00,,---,0.00,VWS V14.01,2013-02-07 08:30:00,
2013-02-07 03:34:00,68.4,61.6,30.09,South,170,0.0,0.0,79,0.00,,---,0.00,VWS V14.01,2013-02-07 08:34:00,
2013-02-07 03:35:00,68.4,61.6,30.09,South,170,0.0,0.0,79,0.00,,---,0.00,VWS V14.01,2013-02-07 08:35:00,
2013-02-07 03:39:00,68.4,61.6,30.09,SSW,197,0.0,0.0,79,0.00,,---,0.00,VWS V14.01,2013-02-07 08:39:00,
2013-02-07 03:40:00,68.4,61.6,30.09,SSW,197,0.0,0.0,79,0.00,,---,0.00,VWS V14.01,2013-02-07 08:40:00,
2013-02-07 03:44:00,68.2,61.4,30.09,SSW,197,0.0,0.0,79,0.00,,---,0.00,VWS V14.01,2013-02-07 08:44:00,
2013-02-07 03:45:00,68.2,61.4,30.09,SSW,197,0.0,0.0,79,0.00,,---,0.00,VWS V14.01,2013-02-07 08:45:00,
2013-02-07 03:49:00,68.2,61.4,30.09,SSW,197,0.0,0.0,79,0.00,,---,0.00,VWS V14.01,2013-02-07 08:49:00,
2013-02-07 03:50:00,68.2,61.4,30.09,SSW,197,0.0,0.0,79,0.00,,---,0.00,VWS V14.01,2013-02-07 08:50:00,
2013-02-07 03:54:00,68.0,61.2,30.09,SSW,197,0.0,0.0,79,0.00,,---,0.00,VWS V14.01,2013-02-07 08:54:00,
2013-02-07 03:55:00,68.0,61.2,30.09,SSW,197,0.0,0.0,79,0.00,,---,0.00,VWS V14.01,2013-02-07 08:55:00,
2013-02-07 03:59:00,68.0,61.2,30.09,SSW,197,0.0,0.0,79,0.00,,---,0.00,VWS V14.01,2013-02-07 08:59:00,
2013-02-07 04:00:00,68.0,61.2,30.09,SSW,197,0.0,0.0,79,0.00,,---,0.00,VWS V14.01,2013-02-07 09:00:00,
2013-02-07 04:01:00,68.0,61.2,30.09,SSW,197,0.0,0.0,79,0.00,,---,0.00,VWS V14.01,2013-02-07 09:01:00,
2013-02-07 04:05:00,68.0,61.2,30.09,SSW,197,0.0,0.0,79,0.00,,---,0.00,VWS V14.01,2013-02-07 09:05:00,
2013-02-07 04:06:00,68.0,61.2,30.09,SSW,197,0.0,0.0,79,0.00,,---,0.00,VWS V14.01,2013-02-07 09:06:00,
2013-02-07 04:10:00,67.8,61.4,30.09,SSW,197,0.0,0.0,80,0.00,,---,0.00,VWS V14.01,2013-02-07 09:10:00,
2013-02-07 04:11:00,67.8,61.4,30.09,SSW,197,0.0,0.0,80,0.00,,---,0.00,VWS V14.01,2013-02-07 09:11:00,
2013-02-07 04:15:00,67.8,61.4,30.09,SSW,197,0.0,0.0,80,0.00,,---,0.00,VWS V14.01,2013-02-07 09:15:00,
2013-02-07 04:16:00,67.8,61.4,30.09,SSW,197,0.0,0.0,80,0.00,,---,0.00,VWS V14.01,2013-02-07 09:16:00,
2013-02-07 04:20:00,67.5,61.1,30.09,SSW,197,0.0,0.0,80,0.00,,---,0.00,VWS V14.01,2013-02-07 09:20:00,
2013-02-07 04:21:00,67.5,61.1,30.09,SSW,197,0.0,0.0,80,0.00,,---,0.00,VWS V14.01,2013-02-07 09:21:00,
2013-02-07 04:25:00,67.5,61.1,30.09,SSW,197,0.0,0.0,80,0.00,,---,0.00,VWS V14.01,2013-02-07 09:25:00,
2013-02-07 04:26:00,67.5,61.1,30.09,SSW,197,0.0,0.0,80,0.00,,---,0.00,VWS V14.01,2013-02-07 09:26:00,
2013-02-07 04:30:00,67.5,61.1,30.09,SSW,197,0.0,0.0,80,0.00,,---,0.00,VWS V14.01,2013-02-07 09:30:00,
2013-02-07 04:31:00,67.5,61.1,30.09,SSW,197,0.0,0.0,80,0.00,,---,0.00,VWS V14.01,2013-02-07 09:31:00,
2013-02-07 04:35:00,67.5,61.4,30.09,SSW,197,0.0,0.0,81,0.00,,---,0.00,VWS V14.01,2013-02-07 09:35:00,
2013-02-07 04:36:00,67.5,61.4,30.09,SSW,197,0.0,0.0,81,0.00,,---,0.00,VWS V14.01,2013-02-07 09:36:00,
2013-02-07 04:40:00,67.5,61.4,30.09,SSW,197,0.0,0.0,81,0.00,,---,0.00,VWS V14.01,2013-02-07 09:40:00,
2013-02-07 04:41:00,67.5,61.4,30.09,SSW,197,0.0,0.0,81,0.00,,---,0.00,VWS V14.01,2013-02-07 09:41:00,
2013-02-07 04:46:00,67.3,61.3,30.09,SSW,197,0.0,0.0,81,0.00,,---,0.00,VWS V14.01,2013-02-07 09:46:00,
2013-02-07 04:51:00,67.3,61.3,30.09,SSW,197,0.0,0.0,81,0.00,,---,0.00,VWS V14.01,2013-02-07 09:51:00,
2013-02-07 04:56:00,67.1,61.1,30.09,SSW,197,0.0,0.0,81,0.00,,---,0.00,VWS V14.01,2013-02-07 09:56:00,
2013-02-07 05:01:00,67.1,61.1,30.09,SSW,197,0.0,0.0,81,0.00,,---,0.00,VWS V14.01,2013-02-07 10:01:00,
2013-02-07 05:06:00,66.9,60.9,30.09,SSW,197,0.0,0.0,81,0.00,,---,0.00,VWS V14.01,2013-02-07 10:06:00,
2013-02-07 05:07:00,66.9,60.9,30.09,SSW,197,0.0,0.0,81,0.00,,---,0.00,VWS V14.01,2013-02-07 10:07:00,
2013-02-07 05:11:00,66.9,60.9,30.09,SSW,197,0.0,0.0,81,0.00,,---,0.00,VWS V14.01,2013-02-07 10:11:00,
2013-02-07 05:12:00,66.9,60.9,30.09,SSW,197,0.0,0.0,81,0.00,,---,0.00,VWS V14.01,2013-02-07 10:12:00,
2013-02-07 05:16:00,66.9,60.9,30.09,SSW,197,0.0,0.0,81,0.00,,---,0.00,VWS V14.01,2013-02-07 10:16:00,
2013-02-07 05:17:00,66.9,60.9,30.09,SSW,197,0.0,0.0,81,0.00,,---,0.00,VWS V14.01,2013-02-07 10:17:00,
2013-02-07 05:21:00,66.9,60.9,30.09,SSW,197,0.0,0.0,81,0.00,,---,0.00,VWS V14.01,2013-02-07 10:21:00,
2013-02-07 05:22:00,66.9,60.9,30.09,SSW,197,0.0,0.0,81,0.00,,---,0.00,VWS V14.01,2013-02-07 10:22:00,
2013-02-07 05:26:00,66.7,60.7,30.09,SSW,197,0.0,0.0,81,0.00,,---,0.00,VWS V14.01,2013-02-07 10:26:00,
2013-02-07 05:27:00,66.7,60.7,30.09,SSW,197,0.0,0.0,81,0.00,,---,0.00,VWS V14.01,2013-02-07 10:27:00,
2013-02-07 05:31:00,66.6,60.9,30.09,SSW,197,0.0,0.0,82,0.00,,---,0.00,VWS V14.01,2013-02-07 10:31:00,
2013-02-07 05:32:00,66.6,60.9,30.09,SSW,197,0.0,0.0,82,0.00,,---,0.00,VWS V14.01,2013-02-07 10:32:00,
2013-02-07 05:36:00,66.6,60.9,30.09,SSW,197,0.0,0.0,82,0.00,,---,0.00,VWS V14.01,2013-02-07 10:36:00,
2013-02-07 05:37:00,66.6,60.9,30.09,SSW,197,0.0,0.0,82,0.00,,---,0.00,VWS V14.01,2013-02-07 10:37:00,
2013-02-07 05:41:00,66.4,60.7,30.09,SSW,197,0.0,0.0,82,0.00,,---,0.00,VWS V14.01,2013-02-07 10:41:00,
2013-02-07 05:42:00,66.4,60.7,30.09,SSW,197,0.0,0.0,82,0.00,,---,0.00,VWS V14.01,2013-02-07 10:42:00,
2013-02-07 05:47:00,66.4,60.7,30.09,SSW,197,0.0,0.0,82,0.00,,---,0.00,VWS V14.01,2013-02-07 10:47:00,
2013-02-07 05:52:00,66.0,60.7,30.09,SSW,197,0.0,0.0,83,0.00,,---,0.00,VWS V14.01,2013-02-07 10:52:00,
2013-02-07 05:57:00,66.0,60.7,30.09,SSW,197,0.0,0.0,83,0.00,,---,0.00,VWS V14.01,2013-02-07 10:57:00,
2013-02-07 06:02:00,66.0,60.7,30.09,SSW,197,0.0,0.0,83,0.00,,---,0.00,VWS V14.01,2013-02-07 11:02:00,
2013-02-07 06:07:00,66.0,60.7,30.09,SSW,197,0.0,0.0,83,0.00,,---,0.00,VWS V14.01,2013-02-07 11:07:00,
2013-02-07 06:12:00,66.0,60.7,30.09,SSW,197,0.0,0.0,83,0.00,,---,0.00,VWS V14.01,2013-02-07 11:12:00,
2013-02-07 06:13:00,66.0,60.7,30.09,SSW,197,0.0,0.0,83,0.00,,---,0.00,VWS V14.01,2013-02-07 11:13:00,
2013-02-07 06:17:00,66.4,61.1,30.09,SSW,197,0.0,0.0,83,0.00,,---,0.00,VWS V14.01,2013-02-07 11:17:00,
2013-02-07 06:18:00,66.4,61.1,30.09,SSW,197,0.0,0.0,83,0.00,,---,0.00,VWS V14.01,2013-02-07 11:18:00,
2013-02-07 06:22:00,66.6,61.2,30.09,SSW,197,0.0,0.0,83,0.00,,---,0.00,VWS V14.01,2013-02-07 11:22:00,
2013-02-07 06:23:00,66.6,61.2,30.09,SSW,197,0.0,0.0,83,0.00,,---,0.00,VWS V14.01,2013-02-07 11:23:00,
2013-02-07 06:27:00,66.6,61.2,30.09,SSW,197,0.0,0.0,83,0.00,,---,0.00,VWS V14.01,2013-02-07 11:27:00,
2013-02-07 06:28:00,66.6,61.2,30.09,SSW,197,0.0,0.0,83,0.00,,---,0.00,VWS V14.01,2013-02-07 11:28:00,
2013-02-07 06:33:00,66.6,60.9,30.09,SSW,197,0.0,0.0,82,0.00,,---,0.00,VWS V14.01,2013-02-07 11:33:00,
2013-02-07 06:38:00,66.6,60.9,30.09,SSW,197,0.0,0.0,82,0.00,,---,0.00,VWS V14.01,2013-02-07 11:38:00,
2013-02-07 06:43:00,66.2,60.5,30.09,SSW,197,0.0,0.0,82,0.00,,---,0.00,VWS V14.01,2013-02-07 11:43:00,
2013-02-07 06:44:00,66.2,60.5,30.09,SSW,197,0.0,0.0,82,0.00,,---,0.00,VWS V14.01,2013-02-07 11:44:00,
2013-02-07 06:48:00,66.2,60.5,30.09,SSW,197,0.0,0.0,82,0.00,,---,0.00,VWS V14.01,2013-02-07 11:48:00,
2013-02-07 06:49:00,66.2,60.5,30.09,SSW,197,0.0,0.0,82,0.00,,---,0.00,VWS V14.01,2013-02-07 11:49:00,
2013-02-07 06:53:00,66.2,60.5,30.09,SSW,197,0.0,0.0,82,0.00,,---,0.00,VWS V14.01,2013-02-07 11:53:00,
2013-02-07 06:54:00,66.0,60.7,30.09,SSW,197,0.0,0.0,83,0.00,,---,0.00,VWS V14.01,2013-02-07 11:54:00,
2013-02-07 06:58:00,65.8,60.5,30.09,SSW,197,0.0,0.0,83,0.00,,---,0.00,VWS V14.01,2013-02-07 11:58:00,
2013-02-07 06:59:00,65.8,60.5,30.09,SSW,197,0.0,0.0,83,0.00,,---,0.00,VWS V14.01,2013-02-07 11:59:00,
2013-02-07 07:03:00,65.8,60.5,30.09,SSW,197,0.0,0.0,83,0.00,,---,0.00,VWS V14.01,2013-02-07 12:03:00,
2013-02-07 07:04:00,65.8,60.5,30.09,SSW,197,0.0,0.0,83,0.00,,---,0.00,VWS V14.01,2013-02-07 12:04:00,
2013-02-07 07:08:00,65.7,60.7,30.09,SSW,197,0.0,0.0,84,0.00,,---,0.00,VWS V14.01,2013-02-07 12:08:00,
2013-02-07 07:09:00,65.7,60.7,30.09,SSW,197,0.0,0.0,84,0.00,,---,0.00,VWS V14.01,2013-02-07 12:09:00,
2013-02-07 07:13:00,65.7,60.7,30.09,SSW,197,0.0,0.0,84,0.00,,---,0.00,VWS V14.01,2013-02-07 12:13:00,
2013-02-07 07:14:00,65.7,60.7,30.09,SSW,197,0.0,0.0,84,0.00,,---,0.00,VWS V14.01,2013-02-07 12:14:00,
2013-02-07 07:18:00,65.7,60.7,30.09,SSW,197,0.0,0.0,84,0.00,,---,0.00,VWS V14.01,2013-02-07 12:18:00,
2013-02-07 07:19:00,65.7,60.7,30.09,SSW,197,0.0,0.0,84,0.00,,---,0.00,VWS V14.01,2013-02-07 12:19:00,
2013-02-07 07:23:00,65.8,61.2,30.09,SSW,197,0.0,0.0,85,0.00,,---,0.00,VWS V14.01,2013-02-07 12:23:00,
2013-02-07 07:24:00,65.8,61.2,30.09,SSW,197,0.0,0.0,85,0.00,,---,0.00,VWS V14.01,2013-02-07 12:24:00,
2013-02-07 07:28:00,65.7,61.0,30.09,SSW,197,0.0,0.0,85,0.00,,---,0.00,VWS V14.01,2013-02-07 12:28:00,
2013-02-07 07:29:00,65.7,61.0,30.09,SSW,197,0.0,0.0,85,0.00,,---,0.00,VWS V14.01,2013-02-07 12:29:00,
2013-02-07 07:33:00,65.7,61.0,30.09,SSW,197,0.0,0.0,85,0.00,,---,0.00,VWS V14.01,2013-02-07 12:33:00,
2013-02-07 07:34:00,65.7,61.0,30.09,SSW,197,0.0,0.0,85,0.00,,---,0.00,VWS V14.01,2013-02-07 12:34:00,
2013-02-07 07:39:00,65.8,61.5,30.09,SSW,197,0.0,0.0,86,0.00,,---,0.00,VWS V14.01,2013-02-07 12:39:00,
2013-02-07 07:44:00,65.8,61.5,30.09,SSW,197,0.0,0.0,86,0.00,,---,0.00,VWS V14.01,2013-02-07 12:44:00,
2013-02-07 07:45:00,66.0,61.7,30.09,SSW,197,0.0,0.0,86,0.00,,---,0.00,VWS V14.01,2013-02-07 12:45:00,
2013-02-07 07:49:00,66.2,61.9,30.12,SSW,197,0.0,0.0,86,0.00,,---,0.00,VWS V14.01,2013-02-07 12:49:00,
2013-02-07 07:50:00,66.2,61.9,30.12,SSW,197,0.0,0.0,86,0.00,,---,0.00,VWS V14.01,2013-02-07 12:50:00,
2013-02-07 07:54:00,66.4,62.4,30.12,SSW,197,0.0,0.0,87,0.00,,---,0.00,VWS V14.01,2013-02-07 12:54:00,
2013-02-07 07:55:00,66.4,62.4,30.12,SSW,197,0.0,0.0,87,0.00,,---,0.00,VWS V14.01,2013-02-07 12:55:00,
2013-02-07 07:59:00,66.6,62.6,30.12,SSW,197,0.0,0.0,87,0.00,,---,0.00,VWS V14.01,2013-02-07 12:59:00,
2013-02-07 08:00:00,66.6,62.6,30.12,SSW,197,0.0,0.0,87,0.00,,---,0.00,VWS V14.01,2013-02-07 13:00:00,
2013-02-07 08:04:00,66.7,62.8,30.12,SSW,197,0.0,0.0,87,0.00,,---,0.00,VWS V14.01,2013-02-07 13:04:00,
2013-02-07 08:05:00,66.7,62.8,30.12,SSW,197,0.0,0.0,87,0.00,,---,0.00,VWS V14.01,2013-02-07 13:05:00,
2013-02-07 08:09:00,66.7,63.1,30.12,SSW,197,0.0,0.0,88,0.00,,---,0.00,VWS V14.01,2013-02-07 13:09:00,
2013-02-07 08:10:00,66.7,63.1,30.12,SSW,197,0.0,0.0,88,0.00,,---,0.00,VWS V14.01,2013-02-07 13:10:00,
2013-02-07 08:14:00,67.1,63.4,30.12,SSW,197,0.0,0.0,88,0.00,,---,0.00,VWS V14.01,2013-02-07 13:14:00,
2013-02-07 08:15:00,67.1,63.4,30.12,SSW,197,0.0,0.0,88,0.00,,---,0.00,VWS V14.01,2013-02-07 13:15:00,
2013-02-07 08:16:00,67.1,63.4,30.12,SSW,197,0.0,0.0,88,0.00,,---,0.00,VWS V14.01,2013-02-07 13:16:00,
2013-02-07 08:19:00,67.1,63.4,30.12,SSW,197,0.0,0.0,88,0.00,,---,0.00,VWS V14.01,2013-02-07 13:19:00,
2013-02-07 08:20:00,67.1,63.4,30.12,SSW,197,0.0,0.0,88,0.00,,---,0.00,VWS V14.01,2013-02-07 13:20:00,
2013-02-07 08:21:00,67.6,64.0,30.12,SSW,197,0.0,0.0,88,0.00,,---,0.00,VWS V14.01,2013-02-07 13:21:00,
2013-02-07 08:24:00,67.6,64.0,30.12,SSW,197,0.0,0.0,88,0.00,,---,0.00,VWS V14.01,2013-02-07 13:24:00,
2013-02-07 08:25:00,67.6,64.0,30.12,SSW,197,0.0,0.0,88,0.00,,---,0.00,VWS V14.01,2013-02-07 13:25:00,
2013-02-07 08:26:00,68.0,64.3,30.12,SSW,197,0.0,0.0,88,0.00,,---,0.00,VWS V14.01,2013-02-07 13:26:00,
2013-02-07 08:29:00,68.2,64.5,30.12,SSW,197,0.0,0.0,88,0.00,,---,0.00,VWS V14.01,2013-02-07 13:29:00,
2013-02-07 08:30:00,68.2,64.5,30.12,SSW,197,0.0,0.0,88,0.00,,---,0.00,VWS V14.01,2013-02-07 13:30:00,
2013-02-07 08:31:00,68.2,64.5,30.12,SSW,197,0.0,0.0,88,0.00,,---,0.00,VWS V14.01,2013-02-07 13:31:00,
2013-02-07 08:34:00,68.7,65.0,30.12,SSW,197,0.0,0.0,88,0.00,,---,0.00,VWS V14.01,2013-02-07 13:34:00,
2013-02-07 08:35:00,68.7,65.0,30.12,SSW,197,0.0,0.0,88,0.00,,---,0.00,VWS V14.01,2013-02-07 13:35:00,
2013-02-07 08:36:00,68.7,65.0,30.12,SSW,197,0.0,0.0,88,0.00,,---,0.00,VWS V14.01,2013-02-07 13:36:00,
2013-02-07 08:39:00,68.9,65.2,30.12,South,169,3.1,3.1,88,0.00,,---,0.00,VWS V14.01,2013-02-07 13:39:00,
2013-02-07 08:40:00,68.9,65.2,30.12,South,169,3.1,3.1,88,0.00,,---,0.00,VWS V14.01,2013-02-07 13:40:00,
2013-02-07 08:41:00,68.9,65.2,30.12,South,169,3.1,3.1,88,0.00,,---,0.00,VWS V14.01,2013-02-07 13:41:00,
2013-02-07 08:44:00,68.9,65.2,30.12,SSE,156,2.2,3.1,88,0.00,,---,0.00,VWS V14.01,2013-02-07 13:44:00,
2013-02-07 08:45:00,68.9,65.2,30.12,SSE,156,2.2,2.2,88,0.00,,---,0.00,VWS V14.01,2013-02-07 13:45:00,
2013-02-07 08:46:00,68.9,65.2,30.12,SSE,156,2.2,2.2,88,0.00,,---,0.00,VWS V14.01,2013-02-07 13:46:00,
2013-02-07 08:50:00,69.3,65.2,30.12,SSE,159,0.0,0.0,87,0.00,,---,0.00,VWS V14.01,2013-02-07 13:50:00,
2013-02-07 08:51:00,69.3,65.2,30.12,SSE,159,0.0,0.0,87,0.00,,---,0.00,VWS V14.01,2013-02-07 13:51:00,
2013-02-07 08:55:00,69.3,65.2,30.12,SSW,193,4.0,4.0,87,0.00,,---,0.00,VWS V14.01,2013-02-07 13:55:00,
2013-02-07 08:56:00,69.8,65.4,30.12,SSW,193,4.0,4.0,86,0.00,,---,0.00,VWS V14.01,2013-02-07 13:56:00,
2013-02-07 08:57:00,69.8,65.1,30.12,SSW,193,4.0,4.0,85,0.00,,---,0.00,VWS V14.01,2013-02-07 13:57:00,
2013-02-07 09:00:00,69.8,65.1,30.12,South,183,3.1,3.1,85,0.00,,---,0.00,VWS V14.01,2013-02-07 14:00:00,
2013-02-07 09:01:00,69.8,65.1,30.12,South,183,3.1,3.1,85,0.00,,---,0.00,VWS V14.01,2013-02-07 14:01:00,
2013-02-07 09:02:00,70.0,65.3,30.12,South,183,3.1,3.1,85,0.00,,---,0.00,VWS V14.01,2013-02-07 14:02:00,
2013-02-07 09:05:00,70.0,65.3,30.12,South,183,3.1,3.1,85,0.00,,---,0.00,VWS V14.01,2013-02-07 14:05:00,
2013-02-07 09:06:00,70.0,65.3,30.12,South,182,4.0,4.0,85,0.00,,---,0.00,VWS V14.01,2013-02-07 14:06:00,
2013-02-07 09:07:00,70.0,65.3,30.12,South,182,4.0,4.0,85,0.00,,---,0.00,VWS V14.01,2013-02-07 14:07:00,
2013-02-07 09:10:00,70.0,65.3,30.12,South,182,4.0,4.0,85,0.00,,---,0.00,VWS V14.01,2013-02-07 14:10:00,
2013-02-07 09:11:00,70.0,65.3,30.12,South,178,0.0,4.0,85,0.00,,---,0.00,VWS V14.01,2013-02-07 14:11:00,
2013-02-07 09:12:00,70.0,65.3,30.12,South,178,0.0,0.0,85,0.00,,---,0.00,VWS V14.01,2013-02-07 14:12:00,
2013-02-07 09:15:00,70.0,65.3,30.12,SSE,151,3.6,3.6,85,0.00,,---,0.00,VWS V14.01,2013-02-07 14:15:00,
2013-02-07 09:16:00,70.0,65.3,30.12,SSE,151,3.6,3.6,85,0.00,,---,0.00,VWS V14.01,2013-02-07 14:16:00,
2013-02-07 09:17:00,70.0,65.3,30.12,SSE,151,3.6,3.6,85,0.00,,---,0.00,VWS V14.01,2013-02-07 14:17:00,
2013-02-07 09:21:00,70.0,65.3,30.12,South,171,0.0,0.0,85,0.00,,---,0.00,VWS V14.01,2013-02-07 14:21:00,
2013-02-07 09:22:00,70.0,65.3,30.12,SSE,158,3.1,3.1,85,0.00,,---,0.00,VWS V14.01,2013-02-07 14:22:00,
2013-02-07 09:26:00,70.0,65.3,30.12,SSE,158,3.1,3.1,85,0.00,,---,0.00,VWS V14.01,2013-02-07 14:26:00,
2013-02-07 09:27:00,70.0,65.3,30.12,South,173,5.4,5.4,85,0.00,,---,0.00,VWS V14.01,2013-02-07 14:27:00,
2013-02-07 09:31:00,71.1,65.3,30.12,SSE,163,4.5,4.5,82,0.00,,---,0.00,VWS V14.01,2013-02-07 14:31:00,
2013-02-07 09:32:00,71.1,65.3,30.12,SSE,163,4.5,4.5,82,0.00,,---,0.00,VWS V14.01,2013-02-07 14:32:00,
2013-02-07 09:36:00,71.1,65.3,30.12,SSE,152,2.7,2.7,82,0.00,,---,0.00,VWS V14.01,2013-02-07 14:36:00,
2013-02-07 09:37:00,71.1,65.3,30.12,SSE,152,2.7,2.7,82,0.00,,---,0.00,VWS V14.01,2013-02-07 14:37:00,
2013-02-07 09:41:00,71.1,65.3,30.12,NW,320,3.6,3.6,82,0.00,,---,0.00,VWS V14.01,2013-02-07 14:41:00,
2013-02-07 09:42:00,71.1,65.3,30.12,NW,320,3.6,3.6,82,0.00,,---,0.00,VWS V14.01,2013-02-07 14:42:00,
2013-02-07 09:46:00,71.1,65.3,30.12,SSE,150,3.6,3.6,82,0.00,,---,0.00,VWS V14.01,2013-02-07 14:46:00,
2013-02-07 09:47:00,71.1,65.3,30.12,SSE,150,3.6,3.6,82,0.00,,---,0.00,VWS V14.01,2013-02-07 14:47:00,
2013-02-07 09:51:00,71.1,65.3,30.12,South,187,3.6,3.6,82,0.00,,---,0.00,VWS V14.01,2013-02-07 14:51:00,
2013-02-07 09:52:00,71.1,65.3,30.12,South,187,3.6,3.6,82,0.00,,---,0.00,VWS V14.01,2013-02-07 14:52:00,
2013-02-07 09:56:00,71.1,65.3,30.12,SSW,198,3.6,3.6,82,0.00,,---,0.00,VWS V14.01,2013-02-07 14:56:00,
2013-02-07 09:57:00,71.1,65.3,30.12,SSW,198,3.6,3.6,82,0.00,,---,0.00,VWS V14.01,2013-02-07 14:57:00,
2013-02-07 10:01:00,71.1,65.3,30.12,South,189,3.1,3.1,82,0.00,,---,0.00,VWS V14.01,2013-02-07 15:01:00,
2013-02-07 10:02:00,71.1,65.3,30.12,South,189,3.1,3.1,82,0.00,,---,0.00,VWS V14.01,2013-02-07 15:02:00,
2013-02-07 10:06:00,71.1,65.3,30.12,SSE,168,4.0,4.0,82,0.00,,---,0.00,VWS V14.01,2013-02-07 15:06:00,
2013-02-07 10:07:00,71.1,65.3,30.12,SSE,168,4.0,4.0,82,0.00,,---,0.00,VWS V14.01,2013-02-07 15:07:00,
2013-02-07 10:08:00,71.1,65.3,30.12,SSE,168,4.0,4.0,82,0.00,,---,0.00,VWS V14.01,2013-02-07 15:08:00,
2013-02-07 10:12:00,71.1,65.3,30.12,South,185,2.2,2.2,82,0.00,,---,0.00,VWS V14.01,2013-02-07 15:12:00,
2013-02-07 10:13:00,71.1,65.3,30.12,South,185,2.2,2.2,82,0.00,,---,0.00,VWS V14.01,2013-02-07 15:13:00,
2013-02-07 10:17:00,71.1,65.3,30.12,SSW,193,2.7,2.7,82,0.00,,---,0.00,VWS V14.01,2013-02-07 15:17:00,
2013-02-07 10:18:00,71.1,65.3,30.12,SSW,193,2.7,2.7,82,0.00,,---,0.00,VWS V14.01,2013-02-07 15:18:00,
2013-02-07 10:22:00,71.1,65.3,30.12,SSW,193,2.7,2.7,82,0.00,,---,0.00,VWS V14.01,2013-02-07 15:22:00,
2013-02-07 10:23:00,71.1,65.3,30.12,South,169,0.0,2.7,82,0.00,,---,0.00,VWS V14.01,2013-02-07 15:23:00,
2013-02-07 10:27:00,71.1,65.3,30.12,South,169,0.0,0.0,82,0.00,,---,0.00,VWS V14.01,2013-02-07 15:27:00,
2013-02-07 10:28:00,71.1,65.3,30.12,South,169,0.0,0.0,82,0.00,,---,0.00,VWS V14.01,2013-02-07 15:28:00,
2013-02-07 10:32:00,71.1,65.3,30.12,South,171,2.2,2.2,82,0.00,,---,0.00,VWS V14.01,2013-02-07 15:32:00,
2013-02-07 10:33:00,71.1,65.3,30.12,South,171,2.2,2.2,82,0.00,,---,0.00,VWS V14.01,2013-02-07 15:33:00,
2013-02-07 10:37:00,71.1,65.3,30.12,SSE,166,4.0,4.0,82,0.00,,---,0.00,VWS V14.01,2013-02-07 15:37:00,
2013-02-07 10:38:00,71.1,65.3,30.12,SSE,166,4.0,4.0,82,0.00,,---,0.00,VWS V14.01,2013-02-07 15:38:00,
2013-02-07 10:42:00,71.1,65.3,30.12,SSW,193,2.2,2.2,82,0.00,,---,0.00,VWS V14.01,2013-02-07 15:42:00,
2013-02-07 10:43:00,71.1,65.3,30.12,South,186,3.1,3.1,82,0.00,,---,0.00,VWS V14.01,2013-02-07 15:43:00,
2013-02-07 10:47:00,71.1,65.3,30.12,SW,221,2.2,2.2,82,0.00,,---,0.00,VWS V14.01,2013-02-07 15:47:00,
2013-02-07 10:48:00,71.1,65.3,30.12,SW,221,2.2,2.2,82,0.00,,---,0.00,VWS V14.01,2013-02-07 15:48:00,
2013-02-07 10:52:00,71.1,65.3,30.12,SSW,205,3.6,3.6,82,0.00,,---,0.00,VWS V14.01,2013-02-07 15:52:00,
2013-02-07 10:53:00,71.1,65.3,30.12,SSW,205,3.6,3.6,82,0.00,,---,0.00,VWS V14.01,2013-02-07 15:53:00,
2013-02-07 10:57:00,71.1,65.3,30.12,SSW,205,3.6,3.6,82,0.00,,---,0.00,VWS V14.01,2013-02-07 15:57:00,
2013-02-07 10:58:00,71.1,65.3,30.12,SSE,166,6.3,6.3,82,0.00,,---,0.00,VWS V14.01,2013-02-07 15:58:00,
2013-02-07 11:02:00,71.1,65.3,30.12,SSW,205,2.7,2.7,82,0.00,,---,0.00,VWS V14.01,2013-02-07 16:02:00,
2013-02-07 11:03:00,71.1,65.3,30.12,SSW,205,2.7,2.7,82,0.00,,---,0.00,VWS V14.01,2013-02-07 16:03:00,
2013-02-07 11:07:00,71.1,65.3,30.12,South,184,3.6,3.6,82,0.00,,---,0.00,VWS V14.01,2013-02-07 16:07:00,
2013-02-07 11:08:00,71.1,65.3,30.12,South,184,3.6,3.6,82,0.00,,---,0.00,VWS V14.01,2013-02-07 16:08:00,
2013-02-07 11:12:00,71.1,65.3,30.12,SE,137,0.0,2.7,82,0.00,,---,0.00,VWS V14.01,2013-02-07 16:12:00,
2013-02-07 11:13:00,71.1,65.3,30.12,SE,137,0.0,0.0,82,0.00,,---,0.00,VWS V14.01,2013-02-07 16:13:00,
2013-02-07 11:17:00,71.1,65.3,30.12,SE,137,0.0,0.0,82,0.00,,---,0.00,VWS V14.01,2013-02-07 16:17:00,
2013-02-07 11:18:00,71.1,65.3,30.12,SE,137,0.0,0.0,82,0.00,,---,0.00,VWS V14.01,2013-02-07 16:18:00,
2013-02-07 11:22:00,71.1,65.3,30.09,South,189,3.1,3.1,82,0.00,,---,0.00,VWS V14.01,2013-02-07 16:22:00,
2013-02-07 11:23:00,71.1,65.3,30.09,South,189,3.1,3.1,82,0.00,,---,0.00,VWS V14.01,2013-02-07 16:23:00,
2013-02-07 11:27:00,71.1,65.3,30.09,South,171,4.0,4.0,82,0.00,,---,0.00,VWS V14.01,2013-02-07 16:27:00,
2013-02-07 11:28:00,71.1,65.3,30.09,South,171,4.0,4.0,82,0.00,,---,0.00,VWS V14.01,2013-02-07 16:28:00,
2013-02-07 11:29:00,71.1,65.3,30.09,South,171,4.0,4.0,82,0.00,,---,0.00,VWS V14.01,2013-02-07 16:29:00,
2013-02-07 11:32:00,71.1,65.3,30.09,South,171,4.0,4.0,82,0.00,,---,0.00,VWS V14.01,2013-02-07 16:32:00,
2013-02-07 11:33:00,71.1,65.3,30.09,South,179,3.1,4.0,82,0.00,,---,0.00,VWS V14.01,2013-02-07 16:33:00,
2013-02-07 11:34:00,71.1,65.3,30.09,SSE,162,4.9,4.9,82,0.00,,---,0.00,VWS V14.01,2013-02-07 16:34:00,
2013-02-07 11:37:00,71.1,65.3,30.09,SSE,162,4.9,4.9,82,0.00,,---,0.00,VWS V14.01,2013-02-07 16:37:00,
2013-02-07 11:38:00,71.1,65.3,30.09,SSE,162,4.9,4.9,82,0.00,,---,0.00,VWS V14.01,2013-02-07 16:38:00,
2013-02-07 11:39:00,71.1,65.3,30.09,SSE,162,4.9,4.9,82,0.00,,---,0.00,VWS V14.01,2013-02-07 16:39:00,
2013-02-07 11:42:00,75.4,64.9,30.09,SSW,213,3.6,3.6,70,0.00,,---,0.00,VWS V14.01,2013-02-07 16:42:00,
2013-02-07 11:43:00,75.4,64.9,30.09,SSW,213,3.6,3.6,70,0.00,,---,0.00,VWS V14.01,2013-02-07 16:43:00,
2013-02-07 11:44:00,75.4,64.9,30.09,SSW,213,3.6,3.6,70,0.00,,---,0.00,VWS V14.01,2013-02-07 16:44:00,
2013-02-07 11:48:00,75.4,64.9,30.09,South,172,5.4,5.4,70,0.00,,---,0.00,VWS V14.01,2013-02-07 16:48:00,
2013-02-07 11:49:00,75.4,64.9,30.09,South,172,5.4,5.4,70,0.00,,---,0.00,VWS V14.01,2013-02-07 16:49:00,
2013-02-07 11:53:00,75.4,64.9,30.09,South,172,5.4,5.4,70,0.00,,---,0.00,VWS V14.01,2013-02-07 16:53:00,
2013-02-07 11:54:00,75.4,64.9,30.09,SW,223,0.0,0.0,70,0.00,,---,0.00,VWS V14.01,2013-02-07 16:54:00,
2013-02-07 11:58:00,75.4,64.9,30.09,SSE,167,4.0,4.0,70,0.00,,---,0.00,VWS V14.01,2013-02-07 16:58:00,
2013-02-07 11:59:00,75.4,64.9,30.09,SSE,167,4.0,4.0,70,0.00,,---,0.00,VWS V14.01,2013-02-07 16:59:00,
2013-02-07 12:03:00,75.4,64.9,30.09,SSE,165,4.0,4.0,70,0.00,,---,0.00,VWS V14.01,2013-02-07 17:03:00,
2013-02-07 12:04:00,75.4,64.9,30.09,SSE,165,4.0,4.0,70,0.00,,---,0.00,VWS V14.01,2013-02-07 17:04:00,
2013-02-07 12:05:00,75.4,64.9,30.09,SSE,165,4.0,4.0,70,0.00,,---,0.00,VWS V14.01,2013-02-07 17:05:00,
2013-02-07 12:08:00,75.4,64.9,30.09,SSE,166,2.7,2.7,70,0.00,,---,0.00,VWS V14.01,2013-02-07 17:08:00,
2013-02-07 12:09:00,75.4,64.9,30.09,SSE,166,2.7,2.7,70,0.00,,---,0.00,VWS V14.01,2013-02-07 17:09:00,
2013-02-07 12:10:00,75.4,64.9,30.09,SSE,166,2.7,2.7,70,0.00,,---,0.00,VWS V14.01,2013-02-07 17:10:00,
2013-02-07 12:13:00,75.4,64.9,30.09,SSE,166,2.7,2.7,70,0.00,,---,0.00,VWS V14.01,2013-02-07 17:13:00,
2013-02-07 12:14:00,75.4,64.9,30.09,SSE,166,2.7,2.7,70,0.00,,---,0.00,VWS V14.01,2013-02-07 17:14:00,
2013-02-07 12:15:00,75.4,64.9,30.09,South,191,2.7,2.7,70,0.00,,---,0.00,VWS V14.01,2013-02-07 17:15:00,
2013-02-07 12:18:00,75.4,64.9,30.09,South,191,2.7,2.7,70,0.00,,---,0.00,VWS V14.01,2013-02-07 17:18:00,
2013-02-07 12:19:00,75.4,64.9,30.09,South,191,2.7,2.7,70,0.00,,---,0.00,VWS V14.01,2013-02-07 17:19:00,
2013-02-07 12:20:00,75.4,64.9,30.09,South,191,2.7,2.7,70,0.00,,---,0.00,VWS V14.01,2013-02-07 17:20:00,
2013-02-07 12:23:00,75.4,64.9,30.09,SSW,205,4.0,4.0,70,0.00,,---,0.00,VWS V14.01,2013-02-07 17:23:00,
2013-02-07 12:24:00,75.4,64.9,30.09,SSW,205,4.0,4.0,70,0.00,,---,0.00,VWS V14.01,2013-02-07 17:24:00,
2013-02-07 12:25:00,75.4,64.9,30.09,SSW,205,4.0,4.0,70,0.00,,---,0.00,VWS V14.01,2013-02-07 17:25:00,
2013-02-07 12:26:00,75.4,64.9,30.09,SSW,205,4.0,4.0,70,0.00,,---,0.00,VWS V14.01,2013-02-07 17:26:00,
2013-02-07 12:28:00,75.4,64.9,30.09,SSE,165,3.1,4.0,70,0.00,,---,0.00,VWS V14.01,2013-02-07 17:28:00,
2013-02-07 12:29:00,75.4,64.9,30.09,SSE,165,5.4,5.4,70,0.00,,---,0.00,VWS V14.01,2013-02-07 17:29:00,
2013-02-07 12:30:00,75.4,64.9,30.09,SSE,165,5.4,5.4,70,0.00,,---,0.00,VWS V14.01,2013-02-07 17:30:00,
2013-02-07 12:31:00,75.4,64.9,30.09,SSE,165,5.4,5.4,70,0.00,,---,0.00,VWS V14.01,2013-02-07 17:31:00,
2013-02-07 12:33:00,75.4,64.9,30.09,SSE,167,5.8,5.8,70,0.00,,---,0.00,VWS V14.01,2013-02-07 17:33:00,
2013-02-07 12:34:00,75.4,64.9,30.06,SSE,167,5.8,5.8,70,0.00,,---,0.00,VWS V14.01,2013-02-07 17:34:00,
2013-02-07 12:35:00,75.4,64.9,30.06,SSE,167,5.8,5.8,70,0.00,,---,0.00,VWS V14.01,2013-02-07 17:35:00,
2013-02-07 12:36:00,75.4,64.9,30.06,South,181,3.6,5.8,70,0.00,,---,0.00,VWS V14.01,2013-02-07 17:36:00,
2013-02-07 12:38:00,75.4,64.9,30.06,South,181,3.6,3.6,70,0.00,,---,0.00,VWS V14.01,2013-02-07 17:38:00,
2013-02-07 12:39:00,75.4,64.9,30.06,South,181,3.6,3.6,70,0.00,,---,0.00,VWS V14.01,2013-02-07 17:39:00,
2013-02-07 12:40:00,75.4,64.9,30.06,South,181,3.6,3.6,70,0.00,,---,0.00,VWS V14.01,2013-02-07 17:40:00,
2013-02-07 12:41:00,75.4,64.9,30.06,South,176,3.6,3.6,70,0.00,,---,0.00,VWS V14.01,2013-02-07 17:41:00,
2013-02-07 12:43:00,75.4,64.9,30.06,SSE,160,5.8,5.8,70,0.00,,---,0.00,VWS V14.01,2013-02-07 17:43:00,
2013-02-07 12:44:00,75.4,64.9,30.06,SSE,160,5.8,5.8,70,0.00,,---,0.00,VWS V14.01,2013-02-07 17:44:00,
2013-02-07 12:45:00,75.4,64.9,30.06,SSE,160,5.8,5.8,70,0.00,,---,0.00,VWS V14.01,2013-02-07 17:45:00,
2013-02-07 12:46:00,75.4,64.9,30.06,SSE,160,5.8,5.8,70,0.00,,---,0.00,VWS V14.01,2013-02-07 17:46:00,
2013-02-07 12:48:00,75.4,64.9,30.06,SSE,160,5.8,5.8,70,0.00,,---,0.00,VWS V14.01,2013-02-07 17:48:00,
2013-02-07 12:49:00,75.4,64.9,30.06,South,177,2.7,5.8,70,0.00,,---,0.00,VWS V14.01,2013-02-07 17:49:00,
2013-02-07 12:50:00,75.4,64.9,30.06,South,177,0.0,2.7,70,0.00,,---,0.00,VWS V14.01,2013-02-07 17:50:00,
2013-02-07 12:51:00,75.4,64.9,30.06,South,177,0.0,0.0,70,0.00,,---,0.00,VWS V14.01,2013-02-07 17:51:00,
2013-02-07 12:53:00,75.4,64.9,30.06,South,177,0.0,0.0,70,0.00,,---,0.00,VWS V14.01,2013-02-07 17:53:00,
2013-02-07 12:55:00,75.4,64.9,30.06,South,177,0.0,0.0,70,0.00,,---,0.00,VWS V14.01,2013-02-07 17:55:00,
2013-02-07 12:56:00,75.4,64.9,30.06,South,177,0.0,0.0,70,0.00,,---,0.00,VWS V14.01,2013-02-07 17:56:00,
2013-02-07 12:58:00,75.4,64.9,30.06,SSE,154,5.4,5.4,70,0.00,,---,0.00,VWS V14.01,2013-02-07 17:58:00,
2013-02-07 13:00:00,75.4,64.9,30.06,SSE,153,3.6,3.6,70,0.00,,---,0.00,VWS V14.01,2013-02-07 18:00:00,
2013-02-07 13:02:00,75.4,64.9,30.06,South,170,3.6,3.6,70,0.00,,---,0.00,VWS V14.01,2013-02-07 18:02:00,
2013-02-07 13:03:00,75.4,64.9,30.06,SSW,210,2.7,3.6,70,0.00,,---,0.00,VWS V14.01,2013-02-07 18:03:00,
2013-02-07 13:05:00,75.4,64.9,30.06,SSW,210,2.7,2.7,70,0.00,,---,0.00,VWS V14.01,2013-02-07 18:05:00,
2013-02-07 13:07:00,75.4,64.9,30.06,SSW,210,2.7,2.7,70,0.00,,---,0.00,VWS V14.01,2013-02-07 18:07:00,
2013-02-07 13:08:00,75.4,64.9,30.06,SSW,210,2.7,2.7,70,0.00,,---,0.00,VWS V14.01,2013-02-07 18:08:00,
2013-02-07 13:10:00,75.4,64.9,30.06,SSW,210,2.7,2.7,70,0.00,,---,0.00,VWS V14.01,2013-02-07 18:10:00,
2013-02-07 13:12:00,75.4,64.9,30.06,SSE,152,2.7,2.7,70,0.00,,---,0.00,VWS V14.01,2013-02-07 18:12:00,
2013-02-07 13:13:00,75.4,64.9,30.06,SSE,164,2.7,2.7,70,0.00,,---,0.00,VWS V14.01,2013-02-07 18:13:00,
2013-02-07 13:15:00,75.4,64.9,30.06,SSE,164,2.7,2.7,70,0.00,,---,0.00,VWS V14.01,2013-02-07 18:15:00,
2013-02-07 13:16:00,75.4,64.9,30.06,SSE,164,2.7,2.7,70,0.00,,---,0.00,VWS V14.01,2013-02-07 18:16:00,
2013-02-07 13:17:00,75.4,64.9,30.06,SSE,164,2.7,2.7,70,0.00,,---,0.00,VWS V14.01,2013-02-07 18:17:00,
2013-02-07 13:19:00,75.4,64.9,30.06,South,184,2.2,2.2,70,0.00,,---,0.00,VWS V14.01,2013-02-07 18:19:00,
2013-02-07 13:20:00,75.4,64.9,30.06,South,184,2.2,2.2,70,0.00,,---,0.00,VWS V14.01,2013-02-07 18:20:00,
2013-02-07 13:21:00,75.4,64.9,30.06,South,184,2.2,2.2,70,0.00,,---,0.00,VWS V14.01,2013-02-07 18:21:00,
2013-02-07 13:22:00,75.4,64.9,30.06,South,184,2.2,2.2,70,0.00,,---,0.00,VWS V14.01,2013-02-07 18:22:00,
2013-02-07 13:24:00,75.4,64.9,30.06,SSE,168,5.4,5.4,70,0.00,,---,0.00,VWS V14.01,2013-02-07 18:24:00,
2013-02-07 13:25:00,75.4,64.9,30.03,South,186,2.7,5.4,70,0.00,,---,0.00,VWS V14.01,2013-02-07 18:25:00,
2013-02-07 13:26:00,75.4,64.9,30.03,South,186,2.7,2.7,70,0.00,,---,0.00,VWS V14.01,2013-02-07 18:26:00,
2013-02-07 13:27:00,75.4,64.9,30.03,South,190,2.7,2.7,70,0.00,,---,0.00,VWS V14.01,2013-02-07 18:27:00,
2013-02-07 13:29:00,75.4,64.9,30.03,South,190,2.7,2.7,70,0.00,,---,0.00,VWS V14.01,2013-02-07 18:29:00,
2013-02-07 13:30:00,75.4,64.9,30.03,South,190,2.7,2.7,70,0.00,,---,0.00,VWS V14.01,2013-02-07 18:30:00,
2013-02-07 13:31:00,75.4,64.9,30.03,South,190,2.7,2.7,70,0.00,,---,0.00,VWS V14.01,2013-02-07 18:31:00,
2013-02-07 13:32:00,75.4,64.9,30.03,SSW,195,3.6,3.6,70,0.00,,---,0.00,VWS V14.01,2013-02-07 18:32:00,
2013-02-07 13:34:00,75.4,64.9,30.03,SSW,195,3.6,3.6,70,0.00,,---,0.00,VWS V14.01,2013-02-07 18:34:00,
2013-02-07 13:36:00,75.4,64.9,30.03,SE,144,3.6,3.6,70,0.00,,---,0.00,VWS V14.01,2013-02-07 18:36:00,
2013-02-07 13:38:00,75.4,64.9,30.03,SE,144,3.6,3.6,70,0.00,,---,0.00,VWS V14.01,2013-02-07 18:38:00,
2013-02-07 13:39:00,75.4,64.9,30.03,SSW,203,4.0,4.0,70,0.00,,---,0.00,VWS V14.01,2013-02-07 18:39:00,
2013-02-07 13:41:00,75.4,64.9,30.03,SSW,203,4.0,4.0,70,0.00,,---,0.00,VWS V14.01,2013-02-07 18:41:00,
2013-02-07 13:43:00,75.4,64.9,30.03,SSW,203,4.0,4.0,70,0.00,,---,0.00,VWS V14.01,2013-02-07 18:43:00,
2013-02-07 13:44:00,75.4,64.9,30.03,SSW,203,4.0,4.0,70,0.00,,---,0.00,VWS V14.01,2013-02-07 18:44:00,
2013-02-07 13:46:00,75.4,64.9,30.03,SSE,148,3.6,3.6,70,0.00,,---,0.00,VWS V14.01,2013-02-07 18:46:00,
2013-02-07 13:48:00,75.4,64.9,30.03,SSE,148,3.6,3.6,70,0.00,,---,0.00,VWS V14.01,2013-02-07 18:48:00,
2013-02-07 13:49:00,75.4,64.9,30.03,SSE,148,3.6,3.6,70,0.00,,---,0.00,VWS V14.01,2013-02-07 18:49:00,
2013-02-07 13:51:00,75.4,64.9,30.03,SSE,148,3.6,3.6,70,0.00,,---,0.00,VWS V14.01,2013-02-07 18:51:00,
2013-02-07 13:53:00,75.4,64.9,30.03,SSE,166,2.7,2.7,70,0.00,,---,0.00,VWS V14.01,2013-02-07 18:53:00,
2013-02-07 13:54:00,75.4,64.9,30.03,SSE,163,3.6,3.6,70,0.00,,---,0.00,VWS V14.01,2013-02-07 18:54:00,
2013-02-07 13:56:00,75.4,64.9,30.03,South,178,3.6,3.6,70,0.00,,---,0.00,VWS V14.01,2013-02-07 18:56:00,
2013-02-07 13:58:00,75.4,64.9,30.03,South,178,3.6,3.6,70,0.00,,---,0.00,VWS V14.01,2013-02-07 18:58:00,
2013-02-07 13:59:00,75.4,64.9,30.03,South,178,3.6,3.6,70,0.00,,---,0.00,VWS V14.01,2013-02-07 18:59:00,
2013-02-07 14:01:00,75.4,64.9,30.03,South,176,4.0,4.0,70,0.00,,---,0.00,VWS V14.01,2013-02-07 19:01:00,
2013-02-07 14:02:00,75.4,64.9,30.03,South,176,4.0,4.0,70,0.00,,---,0.00,VWS V14.01,2013-02-07 19:02:00,
2013-02-07 14:03:00,75.4,64.9,30.03,South,179,4.0,4.0,70,0.00,,---,0.00,VWS V14.01,2013-02-07 19:03:00,
2013-02-07 14:04:00,75.4,64.9,30.03,South,179,4.0,4.0,70,0.00,,---,0.00,VWS V14.01,2013-02-07 19:04:00,
2013-02-07 14:06:00,75.4,64.9,30.03,South,179,4.0,4.0,70,0.00,,---,0.00,VWS V14.01,2013-02-07 19:06:00,
2013-02-07 14:07:00,75.4,64.9,30.03,SSE,159,3.1,4.0,70,0.00,,---,0.00,VWS V14.01,2013-02-07 19:07:00,
2013-02-07 14:08:00,75.4,64.9,30.03,SSW,201,2.7,2.7,70,0.00,,---,0.00,VWS V14.01,2013-02-07 19:08:00,
2013-02-07 14:09:00,75.4,64.9,30.03,SSW,201,2.7,2.7,70,0.00,,---,0.00,VWS V14.01,2013-02-07 19:09:00,
2013-02-07 14:11:00,75.4,64.9,30.03,SSW,201,2.7,2.7,70,0.00,,---,0.00,VWS V14.01,2013-02-07 19:11:00,
2013-02-07 14:12:00,75.4,64.9,30.03,SSW,212,3.1,3.1,70,0.00,,---,0.00,VWS V14.01,2013-02-07 19:12:00,
2013-02-07 14:13:00,75.4,64.9,30.03,SSW,212,3.1,3.1,70,0.00,,---,0.00,VWS V14.01,2013-02-07 19:13:00,
2013-02-07 14:15:00,75.4,64.9,30.03,SSW,198,3.6,3.6,70,0.00,,---,0.00,VWS V14.01,2013-02-07 19:15:00,
2013-02-07 14:17:00,75.4,64.9,30.03,SSW,198,3.6,3.6,70,0.00,,---,0.00,VWS V14.01,2013-02-07 19:17:00,
2013-02-07 14:18:00,75.4,64.9,30.03,SSE,163,4.0,4.0,70,0.00,,---,0.00,VWS V14.01,2013-02-07 19:18:00,
2013-02-07 14:20:00,75.4,64.9,30.03,SSE,163,4.0,4.0,70,0.00,,---,0.00,VWS V14.01,2013-02-07 19:20:00,
2013-02-07 14:22:00,75.4,64.9,30.03,SSE,158,3.6,3.6,70,0.00,,---,0.00,VWS V14.01,2013-02-07 19:22:00,
2013-02-07 14:24:00,75.4,64.9,30.03,SSE,158,3.6,3.6,70,0.00,,---,0.00,VWS V14.01,2013-02-07 19:24:00,
2013-02-07 14:25:00,75.4,64.9,30.03,SSE,158,3.6,3.6,70,0.00,,---,0.00,VWS V14.01,2013-02-07 19:25:00,
2013-02-07 14:27:00,75.4,64.9,30.03,SSE,158,3.6,3.6,70,0.00,,---,0.00,VWS V14.01,2013-02-07 19:27:00,
2013-02-07 14:29:00,75.4,64.9,30.03,SSE,159,4.9,4.9,70,0.00,,---,0.00,VWS V14.01,2013-02-07 19:29:00,
2013-02-07 14:30:00,75.4,64.9,30.03,SSE,161,2.7,2.7,70,0.00,,---,0.00,VWS V14.01,2013-02-07 19:30:00,
2013-02-07 14:32:00,75.4,64.9,30.03,SSE,161,2.7,2.7,70,0.00,,---,0.00,VWS V14.01,2013-02-07 19:32:00,
2013-02-07 14:34:00,75.4,64.9,30.00,SSE,161,2.7,2.7,70,0.00,,---,0.00,VWS V14.01,2013-02-07 19:34:00,
2013-02-07 14:35:00,75.4,64.9,30.00,SSW,200,3.1,3.1,70,0.00,,---,0.00,VWS V14.01,2013-02-07 19:35:00,
2013-02-07 14:37:00,75.4,64.9,30.00,SSW,200,3.1,3.1,70,0.00,,---,0.00,VWS V14.01,2013-02-07 19:37:00,
2013-02-07 14:39:00,75.4,64.9,30.00,South,186,2.7,3.1,70,0.00,,---,0.00,VWS V14.01,2013-02-07 19:39:00,
2013-02-07 14:40:00,75.4,64.9,30.00,SSW,201,3.6,3.6,70,0.00,,---,0.00,VWS V14.01,2013-02-07 19:40:00,
2013-02-07 14:42:00,75.4,64.9,30.00,SW,223,3.1,3.6,70,0.00,,---,0.00,VWS V14.01,2013-02-07 19:42:00,
2013-02-07 14:44:00,75.4,64.9,30.00,SW,223,3.1,3.1,70,0.00,,---,0.00,VWS V14.01,2013-02-07 19:44:00,
2013-02-07 14:45:00,75.4,64.9,30.00,SW,223,3.1,3.1,70,0.00,,---,0.00,VWS V14.01,2013-02-07 19:45:00,
2013-02-07 14:47:00,75.4,64.9,30.00,SW,223,3.1,3.1,70,0.00,,---,0.00,VWS V14.01,2013-02-07 19:47:00,
2013-02-07 14:48:00,75.4,64.9,30.00,SW,223,3.1,3.1,70,0.00,,---,0.00,VWS V14.01,2013-02-07 19:48:00,
2013-02-07 14:49:00,75.4,64.9,30.00,SSE,161,4.0,4.0,70,0.00,,---,0.00,VWS V14.01,2013-02-07 19:49:00,
2013-02-07 14:50:00,75.4,64.9,30.00,SSE,161,4.0,4.0,70,0.00,,---,0.00,VWS V14.01,2013-02-07 19:50:00,
2013-02-07 14:52:00,75.4,64.9,30.00,SW,214,5.4,5.4,70,0.00,,---,0.00,VWS V14.01,2013-02-07 19:52:00,
2013-02-07 14:53:00,75.4,64.9,30.00,SW,214,5.4,5.4,70,0.00,,---,0.00,VWS V14.01,2013-02-07 19:53:00,
2013-02-07 14:55:00,75.4,64.9,30.00,SW,214,5.4,5.4,70,0.00,,---,0.00,VWS V14.01,2013-02-07 19:55:00,
2013-02-07 14:57:00,75.4,64.9,30.00,South,177,4.9,4.9,70,0.00,,---,0.00,VWS V14.01,2013-02-07 19:57:00,
2013-02-07 14:58:00,75.4,64.9,30.00,South,177,4.9,4.9,70,0.00,,---,0.00,VWS V14.01,2013-02-07 19:58:00,
2013-02-07 15:00:00,75.4,64.9,30.00,South,177,4.9,4.9,70,0.00,,---,0.00,VWS V14.01,2013-02-07 20:00:00,
2013-02-07 15:01:00,75.4,64.9,30.00,South,177,4.9,4.9,70,0.00,,---,0.00,VWS V14.01,2013-02-07 20:01:00,
2013-02-07 15:02:00,75.4,64.9,30.00,SSE,163,0.0,4.9,70,0.00,,---,0.00,VWS V14.01,2013-02-07 20:02:00,
2013-02-07 15:03:00,75.4,64.9,30.00,South,176,3.1,3.1,70,0.00,,---,0.00,VWS V14.01,2013-02-07 20:03:00,
2013-02-07 15:05:00,75.4,64.9,30.00,South,176,3.1,3.1,70,0.00,,---,0.00,VWS V14.01,2013-02-07 20:05:00,
2013-02-07 15:06:00,75.4,64.9,30.00,South,176,3.1,3.1,70,0.00,,---,0.00,VWS V14.01,2013-02-07 20:06:00,
2013-02-07 15:07:00,75.4,64.9,30.00,SSE,151,4.9,4.9,70,0.00,,---,0.00,VWS V14.01,2013-02-07 20:07:00,
2013-02-07 15:08:00,75.4,64.9,30.00,SSE,151,4.9,4.9,70,0.00,,---,0.00,VWS V14.01,2013-02-07 20:08:00,
2013-02-07 15:10:00,75.4,64.9,30.00,SSE,149,2.7,4.9,70,0.00,,---,0.00,VWS V14.01,2013-02-07 20:10:00,
2013-02-07 15:11:00,75.4,64.9,30.00,SSE,149,2.7,2.7,70,0.00,,---,0.00,VWS V14.01,2013-02-07 20:11:00,
2013-02-07 15:12:00,75.4,64.9,30.00,SSE,149,2.7,2.7,70,0.00,,---,0.00,VWS V14.01,2013-02-07 20:12:00,
2013-02-07 15:13:00,75.4,64.9,30.00,SSE,151,6.3,6.3,70,0.00,,---,0.00,VWS V14.01,2013-02-07 20:13:00,
2013-02-07 15:15:00,75.4,64.9,30.00,SE,130,2.2,6.3,70,0.00,,---,0.00,VWS V14.01,2013-02-07 20:15:00,
2013-02-07 15:16:00,75.4,64.9,30.00,SE,130,2.2,2.2,70,0.00,,---,0.00,VWS V14.01,2013-02-07 20:16:00,
2013-02-07 15:18:00,75.4,64.9,30.00,South,172,5.8,5.8,70,0.00,,---,0.00,VWS V14.01,2013-02-07 20:18:00,
2013-02-07 15:20:00,75.4,64.9,30.00,South,172,5.8,5.8,70,0.00,,---,0.00,VWS V14.01,2013-02-07 20:20:00,
2013-02-07 15:21:00,75.4,64.9,30.00,South,172,5.8,5.8,70,0.00,,---,0.00,VWS V14.01,2013-02-07 20:21:00,
2013-02-07 15:23:00,75.4,64.9,30.00,South,172,5.8,5.8,70,0.00,,---,0.00,VWS V14.01,2013-02-07 20:23:00,
2013-02-07 15:26:00,75.4,64.9,30.00,SSE,165,3.6,3.6,70,0.00,,---,0.00,VWS V14.01,2013-02-07 20:26:00,
2013-02-07 15:28:00,75.4,64.9,30.00,SSE,165,3.6,3.6,70,0.00,,---,0.00,VWS V14.01,2013-02-07 20:28:00,
2013-02-07 15:31:00,75.4,64.9,30.00,ESE,123,5.8,5.8,70,0.00,,---,0.00,VWS V14.01,2013-02-07 20:31:00,
2013-02-07 15:33:00,75.4,64.9,30.00,ESE,123,5.8,5.8,70,0.00,,---,0.00,VWS V14.01,2013-02-07 20:33:00,
2013-02-07 15:36:00,75.4,64.9,30.00,South,189,5.4,5.4,70,0.00,,---,0.00,VWS V14.01,2013-02-07 20:36:00,
2013-02-07 15:38:00,75.4,64.9,30.00,South,171,3.1,5.4,70,0.00,,---,0.00,VWS V14.01,2013-02-07 20:38:00,
2013-02-07 15:41:00,75.4,64.9,30.00,South,171,3.1,3.1,70,0.00,,---,0.00,VWS V14.01,2013-02-07 20:41:00,
2013-02-07 15:43:00,75.4,64.9,30.00,SSE,160,4.0,4.0,70,0.00,,---,0.00,VWS V14.01,2013-02-07 20:43:00,
2013-02-07 15:46:00,75.4,64.9,30.00,SSW,203,3.1,3.1,70,0.00,,---,0.00,VWS V14.01,2013-02-07 20:46:00,
2013-02-07 15:48:00,75.4,64.9,30.00,SSW,203,3.1,3.1,70,0.00,,---,0.00,VWS V14.01,2013-02-07 20:48:00,
2013-02-07 15:51:00,75.4,64.9,30.00,SSW,203,3.1,3.1,70,0.00,,---,0.00,VWS V14.01,2013-02-07 20:51:00,
2013-02-07 15:53:00,75.4,64.9,30.00,South,179,6.3,6.3,70,0.00,,---,0.00,VWS V14.01,2013-02-07 20:53:00,
2013-02-07 15:54:00,75.4,64.9,30.00,South,179,6.3,6.3,70,0.00,,---,0.00,VWS V14.01,2013-02-07 20:54:00,
2013-02-07 15:56:00,75.4,64.9,30.00,South,179,6.3,6.3,70,0.00,,---,0.00,VWS V14.01,2013-02-07 20:56:00,
2013-02-07 15:58:00,75.4,64.9,30.00,South,186,3.1,3.1,70,0.00,,---,0.00,VWS V14.01,2013-02-07 20:58:00,
2013-02-07 15:59:00,75.4,64.9,30.00,South,189,2.7,3.1,70,0.00,,---,0.00,VWS V14.01,2013-02-07 20:59:00,
2013-02-07 16:01:00,75.4,64.9,30.00,South,189,2.7,2.7,70,0.00,,---,0.00,VWS V14.01,2013-02-07 21:01:00,
2013-02-07 16:03:00,75.4,64.9,30.00,SSW,194,4.0,4.0,70,0.00,,---,0.00,VWS V14.01,2013-02-07 21:03:00,
2013-02-07 16:04:00,75.4,64.9,30.00,SSW,194,4.0,4.0,70,0.00,,---,0.00,VWS V14.01,2013-02-07 21:04:00,
2013-02-07 16:06:00,75.4,64.9,30.00,SSW,210,3.6,3.6,70,0.00,,---,0.00,VWS V14.01,2013-02-07 21:06:00,
2013-02-07 16:07:00,75.4,64.9,30.00,SSW,210,3.6,3.6,70,0.00,,---,0.00,VWS V14.01,2013-02-07 21:07:00,
2013-02-07 16:09:00,75.4,64.9,30.00,SW,220,4.0,4.0,70,0.00,,---,0.00,VWS V14.01,2013-02-07 21:09:00,
2013-02-07 16:11:00,75.4,64.9,30.00,SSW,202,2.7,2.7,70,0.00,,---,0.00,VWS V14.01,2013-02-07 21:11:00,
2013-02-07 16:12:00,75.4,64.9,30.00,SSW,202,2.7,2.7,70,0.00,,---,0.00,VWS V14.01,2013-02-07 21:12:00,
2013-02-07 16:14:00,75.4,64.9,30.00,SSE,148,2.7,2.7,70,0.00,,---,0.00,VWS V14.01,2013-02-07 21:14:00,
2013-02-07 16:16:00,75.4,64.9,30.00,SSE,148,2.7,2.7,70,0.00,,---,0.00,VWS V14.01,2013-02-07 21:16:00,
2013-02-07 16:17:00,75.4,64.9,30.00,SSE,148,2.7,2.7,70,0.00,,---,0.00,VWS V14.01,2013-02-07 21:17:00,
2013-02-07 16:19:00,75.4,64.9,30.00,South,169,4.0,4.0,70,0.00,,---,0.00,VWS V14.01,2013-02-07 21:19:00,
2013-02-07 16:21:00,75.4,64.9,30.00,SSE,162,4.9,4.9,70,0.00,,---,0.00,VWS V14.01,2013-02-07 21:21:00,
2013-02-07 16:22:00,75.4,64.9,30.00,SSE,162,4.9,4.9,70,0.00,,---,0.00,VWS V14.01,2013-02-07 21:22:00,
2013-02-07 16:24:00,75.4,64.9,30.00,SSE,162,4.9,4.9,70,0.00,,---,0.00,VWS V14.01,2013-02-07 21:24:00,
2013-02-07 16:26:00,75.4,64.9,30.00,SSE,162,4.9,4.9,70,0.00,,---,0.00,VWS V14.01,2013-02-07 21:26:00,
2013-02-07 16:27:00,75.4,64.9,30.00,SSE,161,2.7,4.9,70,0.00,,---,0.00,VWS V14.01,2013-02-07 21:27:00,
2013-02-07 16:29:00,75.4,64.9,30.00,SSE,161,2.7,2.7,70,0.00,,---,0.00,VWS V14.01,2013-02-07 21:29:00,
2013-02-07 16:31:00,75.4,64.9,30.00,South,177,3.1,3.1,70,0.00,,---,0.00,VWS V14.01,2013-02-07 21:31:00,
2013-02-07 16:32:00,75.4,64.9,30.00,South,177,3.1,3.1,70,0.00,,---,0.00,VWS V14.01,2013-02-07 21:32:00,
2013-02-07 16:34:00,75.4,64.9,30.00,SSE,161,2.7,2.7,70,0.00,,---,0.00,VWS V14.01,2013-02-07 21:34:00,
2013-02-07 16:36:00,75.4,64.9,30.00,SSE,161,2.7,2.7,70,0.00,,---,0.00,VWS V14.01,2013-02-07 21:36:00,
2013-02-07 16:37:00,75.4,64.9,30.00,SSE,161,2.7,2.7,70,0.00,,---,0.00,VWS V14.01,2013-02-07 21:37:00,
2013-02-07 16:39:00,75.4,64.9,30.00,SSE,161,2.7,2.7,70,0.00,,---,0.00,VWS V14.01,2013-02-07 21:39:00,
2013-02-07 16:41:00,75.4,64.9,30.00,South,169,2.7,2.7,70,0.00,,---,0.00,VWS V14.01,2013-02-07 21:41:00,
2013-02-07 16:42:00,75.4,64.9,30.00,South,169,2.7,2.7,70,0.00,,---,0.00,VWS V14.01,2013-02-07 21:42:00,
2013-02-07 16:44:00,75.4,64.9,30.00,South,169,2.7,2.7,70,0.00,,---,0.00,VWS V14.01,2013-02-07 21:44:00,
2013-02-07 16:47:00,75.4,64.9,30.00,SSE,161,3.1,3.1,70,0.00,,---,0.00,VWS V14.01,2013-02-07 21:47:00,
2013-02-07 16:49:00,75.4,64.9,30.00,SSE,159,2.7,2.7,70,0.00,,---,0.00,VWS V14.01,2013-02-07 21:49:00,
2013-02-07 16:52:00,75.4,64.9,30.00,SSE,155,4.0,4.0,70,0.00,,---,0.00,VWS V14.01,2013-02-07 21:52:00,
2013-02-07 16:54:00,75.4,64.9,30.00,SSE,155,4.0,4.0,70,0.00,,---,0.00,VWS V14.01,2013-02-07 21:54:00,
2013-02-07 16:57:00,75.4,64.9,30.00,SSE,166,2.2,2.2,70,0.00,,---,0.00,VWS V14.01,2013-02-07 21:57:00,
2013-02-07 16:58:00,75.4,64.9,30.00,SSE,166,2.2,2.2,70,0.00,,---,0.00,VWS V14.01,2013-02-07 21:58:00,
2013-02-07 16:59:00,75.4,64.9,30.00,SSE,166,2.2,2.2,70,0.00,,---,0.00,VWS V14.01,2013-02-07 21:59:00,
2013-02-07 17:02:00,75.4,64.9,30.00,South,178,3.1,3.1,70,0.00,,---,0.00,VWS V14.01,2013-02-07 22:02:00,
2013-02-07 17:03:00,75.4,64.9,30.00,South,180,2.7,2.7,70,0.00,,---,0.00,VWS V14.01,2013-02-07 22:03:00,
2013-02-07 17:04:00,75.4,64.9,30.00,South,180,2.7,2.7,70,0.00,,---,0.00,VWS V14.01,2013-02-07 22:04:00,
2013-02-07 17:07:00,75.4,64.9,30.00,SSE,164,3.1,3.1,70,0.00,,---,0.00,VWS V14.01,2013-02-07 22:07:00,
2013-02-07 17:08:00,75.4,64.9,30.00,SSE,164,3.1,3.1,70,0.00,,---,0.00,VWS V14.01,2013-02-07 22:08:00,
2013-02-07 17:09:00,75.4,64.9,30.00,SSE,163,3.1,3.1,70,0.00,,---,0.00,VWS V14.01,2013-02-07 22:09:00,
2013-02-07 17:12:00,75.4,64.9,30.00,SSE,163,3.1,3.1,70,0.00,,---,0.00,VWS V14.01,2013-02-07 22:12:00,
2013-02-07 17:13:00,75.4,64.9,30.00,SSE,163,3.1,3.1,70,0.00,,---,0.00,VWS V14.01,2013-02-07 22:13:00,
2013-02-07 17:14:00,75.4,64.9,30.00,South,171,3.1,3.1,70,0.00,,---,0.00,VWS V14.01,2013-02-07 22:14:00,
2013-02-07 17:15:00,75.4,64.9,30.00,South,171,3.1,3.1,70,0.00,,---,0.00,VWS V14.01,2013-02-07 22:15:00,
2013-02-07 17:17:00,75.4,64.9,30.00,South,180,3.1,3.1,70,0.00,,---,0.00,VWS V14.01,2013-02-07 22:17:00,
2013-02-07 17:18:00,75.4,64.9,30.00,South,180,3.1,3.1,70,0.00,,---,0.00,VWS V14.01,2013-02-07 22:18:00,
2013-02-07 17:19:00,75.4,64.9,30.00,South,180,3.1,3.1,70,0.00,,---,0.00,VWS V14.01,2013-02-07 22:19:00,
2013-02-07 17:20:00,75.4,64.9,30.00,South,180,3.1,3.1,70,0.00,,---,0.00,VWS V14.01,2013-02-07 22:20:00,
2013-02-07 17:22:00,75.4,64.9,30.00,South,180,3.1,3.1,70,0.00,,---,0.00,VWS V14.01,2013-02-07 22:22:00,
2013-02-07 17:23:00,75.4,64.9,30.00,SSE,166,6.3,6.3,70,0.00,,---,0.00,VWS V14.01,2013-02-07 22:23:00,
2013-02-07 17:24:00,75.4,64.9,30.00,SSE,160,3.6,6.3,70,0.00,,---,0.00,VWS V14.01,2013-02-07 22:24:00,
2013-02-07 17:25:00,75.4,64.9,30.00,SSE,160,3.6,3.6,70,0.00,,---,0.00,VWS V14.01,2013-02-07 22:25:00,
2013-02-07 17:27:00,75.4,64.9,30.00,SSE,160,3.6,3.6,70,0.00,,---,0.00,VWS V14.01,2013-02-07 22:27:00,
2013-02-07 17:28:00,75.4,64.9,30.00,SSE,160,3.6,3.6,70,0.00,,---,0.00,VWS V14.01,2013-02-07 22:28:00,
2013-02-07 17:30:00,75.4,64.9,30.00,SW,218,5.8,5.8,70,0.00,,---,0.00,VWS V14.01,2013-02-07 22:30:00,
2013-02-07 17:33:00,75.4,64.9,30.00,South,174,3.6,3.6,70,0.00,,---,0.00,VWS V14.01,2013-02-07 22:33:00,
2013-02-07 17:35:00,75.4,64.9,30.00,South,174,3.6,3.6,70,0.00,,---,0.00,VWS V14.01,2013-02-07 22:35:00,
2013-02-07 17:38:00,75.4,64.9,30.00,South,172,3.1,3.1,70,0.00,,---,0.00,VWS V14.01,2013-02-07 22:38:00,
2013-02-07 17:40:00,75.4,64.9,30.00,South,172,3.1,3.1,70,0.00,,---,0.00,VWS V14.01,2013-02-07 22:40:00,
2013-02-07 17:43:00,75.4,64.9,30.00,SSW,206,2.2,2.2,70,0.00,,---,0.00,VWS V14.01,2013-02-07 22:43:00,
2013-02-07 17:45:00,75.4,64.9,30.00,South,185,2.7,2.7,70,0.00,,---,0.00,VWS V14.01,2013-02-07 22:45:00,
2013-02-07 17:48:00,75.4,64.9,30.00,SSW,202,3.6,3.6,70,0.00,,---,0.00,VWS V14.01,2013-02-07 22:48:00,
2013-02-07 17:50:00,75.4,64.9,30.00,SSW,202,3.6,3.6,70,0.00,,---,0.00,VWS V14.01,2013-02-07 22:50:00,
2013-02-07 17:53:00,75.4,64.9,30.00,South,187,3.6,3.6,70,0.00,,---,0.00,VWS V14.01,2013-02-07 22:53:00,
2013-02-07 17:55:00,75.4,64.9,30.00,South,187,3.6,3.6,70,0.00,,---,0.00,VWS V14.01,2013-02-07 22:55:00,
2013-02-07 17:58:00,75.4,64.9,30.00,SSW,195,3.6,3.6,70,0.00,,---,0.00,VWS V14.01,2013-02-07 22:58:00,
2013-02-07 18:00:00,75.4,64.9,30.00,SSW,202,3.6,3.6,70,0.00,,---,0.00,VWS V14.01,2013-02-07 23:00:00,
2013-02-07 18:03:00,75.4,64.9,30.00,SSW,202,3.6,3.6,70,0.00,,---,0.00,VWS V14.01,2013-02-07 23:03:00,
2013-02-07 18:05:00,75.4,64.9,30.00,SSE,159,2.7,2.7,70,0.00,,---,0.00,VWS V14.01,2013-02-07 23:05:00,
2013-02-07 18:06:00,75.4,64.9,30.00,SSE,159,2.7,2.7,70,0.00,,---,0.00,VWS V14.01,2013-02-07 23:06:00,
2013-02-07 18:08:00,75.4,64.9,30.00,SSE,159,2.7,2.7,70,0.00,,---,0.00,VWS V14.01,2013-02-07 23:08:00,
2013-02-07 18:09:00,75.4,64.9,30.00,SSW,199,2.7,2.7,70,0.00,,---,0.00,VWS V14.01,2013-02-07 23:09:00,
2013-02-07 18:10:00,75.4,64.9,30.00,SSW,199,2.7,2.7,70,0.00,,---,0.00,VWS V14.01,2013-02-07 23:10:00,
2013-02-07 18:11:00,75.4,64.9,30.00,SSW,199,2.7,2.7,70,0.00,,---,0.00,VWS V14.01,2013-02-07 23:11:00,
2013-02-07 18:13:00,75.4,64.9,30.00,SSW,203,3.1,3.1,70,0.00,,---,0.00,VWS V14.01,2013-02-07 23:13:00,
2013-02-07 18:14:00,75.4,64.9,30.00,SSW,203,3.1,3.1,70,0.00,,---,0.00,VWS V14.01,2013-02-07 23:14:00,
2013-02-07 18:15:00,75.4,64.9,30.00,SSW,203,3.1,3.1,70,0.00,,---,0.00,VWS V14.01,2013-02-07 23:15:00,
2013-02-07 18:16:00,75.4,64.9,30.00,SSW,203,3.1,3.1,70,0.00,,---,0.00,VWS V14.01,2013-02-07 23:16:00,
2013-02-07 18:18:00,75.4,64.9,30.00,SSW,212,0.0,0.0,70,0.00,,---,0.00,VWS V14.01,2013-02-07 23:18:00,
2013-02-07 18:19:00,75.4,64.9,30.00,SSW,212,0.0,0.0,70,0.00,,---,0.00,VWS V14.01,2013-02-07 23:19:00,
2013-02-07 18:21:00,75.4,64.9,30.00,SSW,212,0.0,0.0,70,0.00,,---,0.00,VWS V14.01,2013-02-07 23:21:00,
2013-02-07 18:23:00,75.4,64.9,30.00,SSW,212,0.0,0.0,70,0.00,,---,0.00,VWS V14.01,2013-02-07 23:23:00,
2013-02-07 18:24:00,75.4,64.9,30.00,SSW,212,0.0,0.0,70,0.00,,---,0.00,VWS V14.01,2013-02-07 23:24:00,
2013-02-07 18:26:00,75.4,64.9,30.00,SSW,206,2.7,2.7,70,0.00,,---,0.00,VWS V14.01,2013-02-07 23:26:00,
2013-02-07 18:28:00,75.4,64.9,30.00,SSW,206,2.7,2.7,70,0.00,,---,0.00,VWS V14.01,2013-02-07 23:28:00,
2013-02-07 18:29:00,75.4,64.9,30.00,SSW,206,2.7,2.7,70,0.00,,---,0.00,VWS V14.01,2013-02-07 23:29:00,
2013-02-07 18:31:00,75.4,64.9,30.00,South,190,2.2,2.2,70,0.00,,---,0.00,VWS V14.01,2013-02-07 23:31:00,
2013-02-07 18:32:00,75.4,64.9,30.00,South,190,2.2,2.2,70,0.00,,---,0.00,VWS V14.01,2013-02-07 23:32:00,
2013-02-07 18:33:00,75.4,64.9,30.00,SSW,204,2.7,2.7,70,0.00,,---,0.00,VWS V14.01,2013-02-07 23:33:00,
2013-02-07 18:34:00,75.4,64.9,30.00,SSW,204,2.7,2.7,70,0.00,,---,0.00,VWS V14.01,2013-02-07 23:34:00,
2013-02-07 18:36:00,75.4,64.9,30.00,SSW,204,2.7,2.7,70,0.00,,---,0.00,VWS V14.01,2013-02-07 23:36:00,
2013-02-07 18:37:00,75.4,64.9,30.00,SSW,204,2.7,2.7,70,0.00,,---,0.00,VWS V14.01,2013-02-07 23:37:00,
2013-02-07 18:38:00,75.4,64.9,30.00,SSW,204,2.7,2.7,70,0.00,,---,0.00,VWS V14.01,2013-02-07 23:38:00,
2013-02-07 18:39:00,75.4,64.9,30.00,SSW,204,2.7,2.7,70,0.00,,---,0.00,VWS V14.01,2013-02-07 23:39:00,
2013-02-07 18:41:00,75.4,64.9,30.00,South,177,0.0,0.0,70,0.00,,---,0.00,VWS V14.01,2013-02-07 23:41:00,
2013-02-07 18:42:00,75.4,64.9,30.00,South,178,2.2,2.2,70,0.00,,---,0.00,VWS V14.01,2013-02-07 23:42:00,
2013-02-07 18:43:00,75.4,64.9,30.00,South,178,2.2,2.2,70,0.00,,---,0.00,VWS V14.01,2013-02-07 23:43:00,
2013-02-07 18:44:00,75.4,64.9,30.00,South,178,2.2,2.2,70,0.00,,---,0.00,VWS V14.01,2013-02-07 23:44:00,
2013-02-07 18:46:00,75.4,64.9,30.00,South,189,3.6,3.6,70,0.00,,---,0.00,VWS V14.01,2013-02-07 23:46:00,
2013-02-07 18:47:00,75.4,64.9,30.00,South,189,0.0,0.0,70,0.00,,---,0.00,VWS V14.01,2013-02-07 23:47:00,
2013-02-07 18:48:00,75.4,64.9,30.00,South,189,0.0,0.0,70,0.00,,---,0.00,VWS V14.01,2013-02-07 23:48:00,
2013-02-07 18:50:00,75.4,64.9,30.00,South,189,0.0,0.0,70,0.00,,---,0.00,VWS V14.01,2013-02-07 23:50:00,
2013-02-07 18:51:00,75.4,64.9,30.00,South,189,0.0,0.0,70,0.00,,---,0.00,VWS V14.01,2013-02-07 23:51:00,
2013-02-07 18:52:00,75.4,64.9,30.00,South,171,0.0,0.0,70,0.00,,---,0.00,VWS V14.01,2013-02-07 23:52:00,
2013-02-07 18:53:00,75.4,64.9,30.00,South,171,0.0,0.0,70,0.00,,---,0.00,VWS V14.01,2013-02-07 23:53:00,
2013-02-07 18:55:00,75.4,64.9,30.00,South,171,0.0,0.0,70,0.00,,---,0.00,VWS V14.01,2013-02-07 23:55:00,
2013-02-07 18:56:00,75.4,64.9,30.00,South,171,0.0,0.0,70,0.00,,---,0.00,VWS V14.01,2013-02-07 23:56:00,
2013-02-07 18:57:00,75.4,64.9,30.00,South,171,0.0,0.0,70,0.00,,---,0.00,VWS V14.01,2013-02-07 23:57:00,
2013-02-07 18:58:00,75.4,64.9,30.00,South,171,0.0,0.0,70,0.00,,---,0.00,VWS V14.01,2013-02-07 23:58:00,
2013-02-07 19:00:00,75.4,64.9,30.00,South,171,0.0,0.0,70,0.00,,---,0.00,VWS V14.01,2013-02-08 00:00:00,
2013-02-07 19:01:00,75.4,64.9,30.00,South,179,3.6,3.6,70,0.00,,---,0.00,VWS V14.01,2013-02-08 00:01:00,
2013-02-07 19:03:00,75.4,64.9,30.00,South,179,3.6,3.6,70,0.00,,---,0.00,VWS V14.01,2013-02-08 00:03:00,
2013-02-07 19:05:00,75.4,64.9,30.00,South,185,2.2,2.2,70,0.00,,---,0.00,VWS V14.01,2013-02-08 00:05:00,
2013-02-07 19:06:00,75.4,64.9,30.00,South,185,2.2,2.2,70,0.00,,---,0.00,VWS V14.01,2013-02-08 00:06:00,
2013-02-07 19:08:00,75.4,64.9,30.00,South,185,0.0,2.2,70,0.00,,---,0.00,VWS V14.01,2013-02-08 00:08:00,
2013-02-07 19:09:00,75.4,64.9,30.00,South,185,0.0,0.0,70,0.00,,---,0.00,VWS V14.01,2013-02-08 00:09:00,
2013-02-07 19:10:00,75.4,64.9,30.00,South,185,0.0,0.0,70,0.00,,---,0.00,VWS V14.01,2013-02-08 00:10:00,
2013-02-07 19:11:00,75.4,64.9,30.00,South,185,0.0,0.0,70,0.00,,---,0.00,VWS V14.01,2013-02-08 00:11:00,
2013-02-07 19:13:00,75.4,64.9,30.00,South,185,0.0,0.0,70,0.00,,---,0.00,VWS V14.01,2013-02-08 00:13:00,
2013-02-07 19:14:00,75.4,64.9,30.00,SSW,206,0.0,0.0,70,0.00,,---,0.00,VWS V14.01,2013-02-08 00:14:00,
2013-02-07 19:15:00,75.4,64.9,30.00,SSW,206,0.0,0.0,70,0.00,,---,0.00,VWS V14.01,2013-02-08 00:15:00,
2013-02-07 19:16:00,75.4,64.9,30.00,SSW,206,0.0,0.0,70,0.00,,---,0.00,VWS V14.01,2013-02-08 00:16:00,
2013-02-07 19:18:00,75.4,64.9,30.00,SSW,206,0.0,0.0,70,0.00,,---,0.00,VWS V14.01,2013-02-08 00:18:00,
2013-02-07 19:19:00,75.4,64.9,30.00,SSW,206,0.0,0.0,70,0.00,,---,0.00,VWS V14.01,2013-02-08 00:19:00,
2013-02-07 19:20:00,75.4,64.9,30.00,SSW,206,0.0,0.0,70,0.00,,---,0.00,VWS V14.01,2013-02-08 00:20:00,
2013-02-07 19:21:00,75.4,64.9,30.00,SSW,206,0.0,0.0,70,0.00,,---,0.00,VWS V14.01,2013-02-08 00:21:00,
2013-02-07 19:23:00,75.4,64.9,30.00,SSW,206,3.1,3.1,70,0.00,,---,0.00,VWS V14.01,2013-02-08 00:23:00,
2013-02-07 19:24:00,75.4,64.9,30.00,SSW,206,3.1,3.1,70,0.00,,---,0.00,VWS V14.01,2013-02-08 00:24:00,
2013-02-07 19:25:00,75.4,64.9,30.00,SSW,206,0.0,3.1,70,0.00,,---,0.00,VWS V14.01,2013-02-08 00:25:00,
2013-02-07 19:26:00,75.4,64.9,30.00,SSW,206,0.0,0.0,70,0.00,,---,0.00,VWS V14.01,2013-02-08 00:26:00,
2013-02-07 19:28:00,75.4,64.9,30.00,SSW,206,0.0,0.0,70,0.00,,---,0.00,VWS V14.01,2013-02-08 00:28:00,
2013-02-07 19:29:00,75.4,64.9,30.00,SSW,206,0.0,0.0,70,0.00,,---,0.00,VWS V14.01,2013-02-08 00:29:00,
2013-02-07 19:30:00,75.4,64.9,30.03,SSW,206,0.0,0.0,70,0.00,,---,0.00,VWS V14.01,2013-02-08 00:30:00,
2013-02-07 19:31:00,75.4,64.9,30.03,SSW,206,0.0,0.0,70,0.00,,---,0.00,VWS V14.01,2013-02-08 00:31:00,
2013-02-07 19:33:00,75.4,64.9,30.03,SSW,206,0.0,0.0,70,0.00,,---,0.00,VWS V14.01,2013-02-08 00:33:00,
2013-02-07 19:34:00,75.4,64.9,30.03,SSW,206,0.0,0.0,70,0.00,,---,0.00,VWS V14.01,2013-02-08 00:34:00,
2013-02-07 19:35:00,75.4,64.9,30.03,SSW,206,0.0,0.0,70,0.00,,---,0.00,VWS V14.01,2013-02-08 00:35:00,
2013-02-07 19:36:00,75.4,64.9,30.03,SSW,207,0.0,0.0,70,0.00,,---,0.00,VWS V14.01,2013-02-08 00:36:00,
2013-02-07 19:38:00,75.4,64.9,30.03,SSW,207,0.0,0.0,70,0.00,,---,0.00,VWS V14.01,2013-02-08 00:38:00,
2013-02-07 19:39:00,75.4,64.9,30.03,SSW,207,0.0,0.0,70,0.00,,---,0.00,VWS V14.01,2013-02-08 00:39:00,
2013-02-07 19:40:00,75.4,64.9,30.03,SSW,207,2.2,2.2,70,0.00,,---,0.00,VWS V14.01,2013-02-08 00:40:00,
2013-02-07 19:41:00,75.4,64.9,30.03,SSW,207,2.2,2.2,70,0.00,,---,0.00,VWS V14.01,2013-02-08 00:41:00,
2013-02-07 19:43:00,75.4,64.9,30.03,SSW,206,2.7,2.7,70,0.00,,---,0.00,VWS V14.01,2013-02-08 00:43:00,
2013-02-07 19:44:00,75.4,64.9,30.03,SSW,206,2.7,2.7,70,0.00,,---,0.00,VWS V14.01,2013-02-08 00:44:00,
2013-02-07 19:45:00,75.4,64.9,30.03,SSW,206,2.7,2.7,70,0.00,,---,0.00,VWS V14.01,2013-02-08 00:45:00,
2013-02-07 19:46:00,75.4,64.9,30.03,SSW,206,2.7,2.7,70,0.00,,---,0.00,VWS V14.01,2013-02-08 00:46:00,
2013-02-07 19:48:00,75.4,64.9,30.03,SSW,206,2.7,2.7,70,0.00,,---,0.00,VWS V14.01,2013-02-08 00:48:00,
2013-02-07 19:49:00,75.4,64.9,30.03,SSW,206,0.0,0.0,70,0.00,,---,0.00,VWS V14.01,2013-02-08 00:49:00,
2013-02-07 19:51:00,75.4,64.9,30.03,SSW,206,0.0,0.0,70,0.00,,---,0.00,VWS V14.01,2013-02-08 00:51:00,
2013-02-07 19:53:00,75.4,64.9,30.03,SSW,206,0.0,0.0,70,0.00,,---,0.00,VWS V14.01,2013-02-08 00:53:00,
2013-02-07 19:55:00,75.4,64.9,30.03,SSW,206,0.0,0.0,70,0.00,,---,0.00,VWS V14.01,2013-02-08 00:55:00,
2013-02-07 19:56:00,75.4,64.9,30.03,SSW,206,0.0,0.0,70,0.00,,---,0.00,VWS V14.01,2013-02-08 00:56:00,
2013-02-07 19:58:00,75.4,64.9,30.03,SSW,206,2.2,3.1,70,0.00,,---,0.00,VWS V14.01,2013-02-08 00:58:00,
2013-02-07 20:00:00,75.4,64.9,30.03,SSW,206,2.2,2.2,70,0.00,,---,0.00,VWS V14.01,2013-02-08 01:00:00,
2013-02-07 20:01:00,75.4,64.9,30.03,SSW,206,2.2,2.2,70,0.00,,---,0.00,VWS V14.01,2013-02-08 01:01:00,
2013-02-07 20:03:00,75.4,64.9,30.03,SSW,206,2.2,2.2,70,0.00,,---,0.00,VWS V14.01,2013-02-08 01:03:00,
2013-02-07 20:06:00,75.4,64.9,30.03,SSW,206,0.0,0.0,70,0.00,,---,0.00,VWS V14.01,2013-02-08 01:06:00,
2013-02-07 20:07:00,75.4,64.9,30.03,SSW,206,0.0,0.0,70,0.00,,---,0.00,VWS V14.01,2013-02-08 01:07:00,
2013-02-07 20:08:00,75.4,64.9,30.03,SSW,206,0.0,0.0,70,0.00,,---,0.00,VWS V14.01,2013-02-08 01:08:00,
2013-02-07 20:11:00,75.4,64.9,30.03,SSW,206,0.0,0.0,70,0.00,,---,0.00,VWS V14.01,2013-02-08 01:11:00,
2013-02-07 20:12:00,75.4,64.9,30.03,SSW,206,0.0,0.0,70,0.00,,---,0.00,VWS V14.01,2013-02-08 01:12:00,
2013-02-07 20:13:00,75.4,64.9,30.03,SSW,206,0.0,0.0,70,0.00,,---,0.00,VWS V14.01,2013-02-08 01:13:00,
2013-02-07 20:16:00,75.4,64.9,30.03,SSW,206,0.0,0.0,70,0.00,,---,0.00,VWS V14.01,2013-02-08 01:16:00,
2013-02-07 20:17:00,75.4,64.9,30.03,SSW,206,0.0,0.0,70,0.00,,---,0.00,VWS V14.01,2013-02-08 01:17:00,
2013-02-07 20:18:00,75.4,64.9,30.03,SSW,206,0.0,0.0,70,0.00,,---,0.00,VWS V14.01,2013-02-08 01:18:00,
2013-02-07 20:21:00,75.4,64.9,30.03,SSW,206,0.0,0.0,70,0.00,,---,0.00,VWS V14.01,2013-02-08 01:21:00,
2013-02-07 20:22:00,75.4,64.9,30.03,SSW,206,0.0,0.0,70,0.00,,---,0.00,VWS V14.01,2013-02-08 01:22:00,
2013-02-07 20:23:00,75.4,64.9,30.03,SSW,206,0.0,0.0,70,0.00,,---,0.00,VWS V14.01,2013-02-08 01:23:00,
2013-02-07 20:26:00,75.4,64.9,30.03,SSW,210,2.7,2.7,70,0.00,,---,0.00,VWS V14.01,2013-02-08 01:26:00,
2013-02-07 20:27:00,75.4,64.9,30.03,SSW,210,2.7,2.7,70,0.00,,---,0.00,VWS V14.01,2013-02-08 01:27:00,
2013-02-07 20:29:00,75.4,64.9,30.03,SSW,210,2.7,2.7,70,0.00,,---,0.00,VWS V14.01,2013-02-08 01:29:00,
2013-02-07 20:31:00,75.4,64.9,30.03,SSW,211,2.2,2.2,70,0.00,,---,0.00,VWS V14.01,2013-02-08 01:31:00,
2013-02-07 20:32:00,75.4,64.9,30.03,SSW,211,0.0,0.0,70,0.00,,---,0.00,VWS V14.01,2013-02-08 01:32:00,
2013-02-07 20:34:00,75.4,64.9,30.03,SSW,211,0.0,0.0,70,0.00,,---,0.00,VWS V14.01,2013-02-08 01:34:00,
2013-02-07 20:36:00,75.4,64.9,30.03,SSW,211,0.0,0.0,70,0.00,,---,0.00,VWS V14.01,2013-02-08 01:36:00,
2013-02-07 20:37:00,75.4,64.9,30.03,SSW,211,0.0,0.0,70,0.00,,---,0.00,VWS V14.01,2013-02-08 01:37:00,
2013-02-07 20:39:00,75.4,64.9,30.03,SSW,212,3.1,3.1,70,0.00,,---,0.00,VWS V14.01,2013-02-08 01:39:00,
2013-02-07 20:41:00,75.4,64.9,30.03,SSW,212,3.1,3.1,70,0.00,,---,0.00,VWS V14.01,2013-02-08 01:41:00,
2013-02-07 20:43:00,75.4,64.9,30.03,SSW,212,2.2,2.2,70,0.00,,---,0.00,VWS V14.01,2013-02-08 01:43:00,
2013-02-07 20:44:00,75.4,64.9,30.03,SSW,212,3.1,3.1,70,0.00,,---,0.00,VWS V14.01,2013-02-08 01:44:00,
2013-02-07 20:46:00,75.4,64.9,30.03,SSW,212,0.0,0.0,70,0.00,,---,0.00,VWS V14.01,2013-02-08 01:46:00,
2013-02-07 20:48:00,75.4,64.9,30.03,SSW,212,0.0,0.0,70,0.00,,---,0.00,VWS V14.01,2013-02-08 01:48:00,
2013-02-07 20:49:00,75.4,64.9,30.03,SSW,212,0.0,0.0,70,0.00,,---,0.00,VWS V14.01,2013-02-08 01:49:00,
2013-02-07 20:51:00,75.4,64.9,30.03,SSW,212,0.0,0.0,70,0.00,,---,0.00,VWS V14.01,2013-02-08 01:51:00,
2013-02-07 20:53:00,75.4,64.9,30.03,SW,216,0.0,0.0,70,0.00,,---,0.00,VWS V14.01,2013-02-08 01:53:00,
2013-02-07 20:54:00,75.4,64.9,30.03,SW,216,0.0,0.0,70,0.00,,---,0.00,VWS V14.01,2013-02-08 01:54:00,
2013-02-07 20:56:00,75.4,64.9,30.03,SW,216,0.0,0.0,70,0.00,,---,0.00,VWS V14.01,2013-02-08 01:56:00,
2013-02-07 20:58:00,75.4,64.9,30.03,SW,216,0.0,0.0,70,0.00,,---,0.00,VWS V14.01,2013-02-08 01:58:00,
2013-02-07 20:59:00,75.4,64.9,30.03,SW,216,0.0,0.0,70,0.00,,---,0.00,VWS V14.01,2013-02-08 01:59:00,
2013-02-07 21:01:00,75.4,64.9,30.03,SW,214,3.6,3.6,70,0.00,,---,0.00,VWS V14.01,2013-02-08 02:01:00,
2013-02-07 21:03:00,75.4,64.9,30.03,SW,214,0.0,0.0,70,0.00,,---,0.00,VWS V14.01,2013-02-08 02:03:00,
2013-02-07 21:04:00,75.4,64.9,30.03,SW,214,2.2,2.2,70,0.00,,---,0.00,VWS V14.01,2013-02-08 02:04:00,
2013-02-07 21:06:00,75.4,64.9,30.03,SW,214,2.2,2.2,70,0.00,,---,0.00,VWS V14.01,2013-02-08 02:06:00,
2013-02-07 21:07:00,75.4,64.9,30.03,SW,214,0.0,2.2,70,0.00,,---,0.00,VWS V14.01,2013-02-08 02:07:00,
2013-02-07 21:08:00,75.4,64.9,30.03,SW,214,0.0,0.0,70,0.00,,---,0.00,VWS V14.01,2013-02-08 02:08:00,
2013-02-07 21:09:00,75.4,64.9,30.03,SW,214,0.0,0.0,70,0.00,,---,0.00,VWS V14.01,2013-02-08 02:09:00,
2013-02-07 21:11:00,75.4,64.9,30.03,SW,214,0.0,0.0,70,0.00,,---,0.00,VWS V14.01,2013-02-08 02:11:00,
2013-02-07 21:12:00,75.4,64.9,30.03,SW,214,0.0,0.0,70,0.00,,---,0.00,VWS V14.01,2013-02-08 02:12:00,
2013-02-07 21:13:00,75.4,64.9,30.03,SW,214,0.0,0.0,70,0.00,,---,0.00,VWS V14.01,2013-02-08 02:13:00,
2013-02-07 21:14:00,75.4,64.9,30.03,SW,214,0.0,0.0,70,0.00,,---,0.00,VWS V14.01,2013-02-08 02:14:00,
2013-02-07 21:16:00,75.4,64.9,30.03,SW,214,0.0,0.0,70,0.00,,---,0.00,VWS V14.01,2013-02-08 02:16:00,
2013-02-07 21:17:00,75.4,64.9,30.03,SW,214,0.0,0.0,70,0.00,,---,0.00,VWS V14.01,2013-02-08 02:17:00,
2013-02-07 21:18:00,75.4,64.9,30.03,SW,214,0.0,0.0,70,0.00,,---,0.00,VWS V14.01,2013-02-08 02:18:00,
2013-02-07 21:19:00,75.4,64.9,30.03,SW,214,0.0,0.0,70,0.00,,---,0.00,VWS V14.01,2013-02-08 02:19:00,
2013-02-07 21:21:00,75.4,64.9,30.03,SW,214,2.7,2.7,70,0.00,,---,0.00,VWS V14.01,2013-02-08 02:21:00,
2013-02-07 21:22:00,75.4,64.9,30.03,SW,214,2.7,2.7,70,0.00,,---,0.00,VWS V14.01,2013-02-08 02:22:00,
2013-02-07 21:23:00,75.4,64.9,30.03,SW,214,2.7,2.7,70,0.00,,---,0.00,VWS V14.01,2013-02-08 02:23:00,
2013-02-07 21:24:00,75.4,64.9,30.03,SSW,213,2.2,2.2,70,0.00,,---,0.00,VWS V14.01,2013-02-08 02:24:00,
2013-02-07 21:27:00,75.4,64.9,30.03,SSW,213,2.2,2.2,70,0.00,,---,0.00,VWS V14.01,2013-02-08 02:27:00,
2013-02-07 21:28:00,75.4,64.9,30.03,SSW,213,0.0,0.0,70,0.00,,---,0.00,VWS V14.01,2013-02-08 02:28:00,
2013-02-07 21:29:00,75.4,64.9,30.03,SSW,213,0.0,0.0,70,0.00,,---,0.00,VWS V14.01,2013-02-08 02:29:00,
2013-02-07 21:32:00,75.4,64.9,30.03,SSW,213,2.2,2.2,70,0.00,,---,0.00,VWS V14.01,2013-02-08 02:32:00,
2013-02-07 21:33:00,75.4,64.9,30.03,SSW,213,2.2,2.2,70,0.00,,---,0.00,VWS V14.01,2013-02-08 02:33:00,
2013-02-07 21:34:00,75.4,64.9,30.03,SSW,213,2.2,2.2,70,0.00,,---,0.00,VWS V14.01,2013-02-08 02:34:00,
2013-02-07 21:37:00,75.4,64.9,30.03,SSW,213,2.2,2.2,70,0.00,,---,0.00,VWS V14.01,2013-02-08 02:37:00,
2013-02-07 21:38:00,75.4,64.9,30.03,SSW,213,2.7,2.7,70,0.00,,---,0.00,VWS V14.01,2013-02-08 02:38:00,
2013-02-07 21:39:00,75.4,64.9,30.03,SSW,213,2.7,2.7,70,0.00,,---,0.00,VWS V14.01,2013-02-08 02:39:00,
2013-02-07 21:42:00,75.4,64.9,30.03,SSW,213,2.7,2.7,70,0.00,,---,0.00,VWS V14.01,2013-02-08 02:42:00,
2013-02-07 21:43:00,75.4,64.9,30.03,SSW,213,2.7,2.7,70,0.00,,---,0.00,VWS V14.01,2013-02-08 02:43:00,
2013-02-07 21:44:00,75.4,64.9,30.03,SSW,213,0.0,0.0,70,0.00,,---,0.00,VWS V14.01,2013-02-08 02:44:00,
2013-02-07 21:47:00,75.4,64.9,30.03,SSW,213,2.7,2.7,70,0.00,,---,0.00,VWS V14.01,2013-02-08 02:47:00,
2013-02-07 21:48:00,75.4,64.9,30.03,SSW,213,0.0,0.0,70,0.00,,---,0.00,VWS V14.01,2013-02-08 02:48:00,
2013-02-07 21:50:00,75.4,64.9,30.03,SSW,213,3.6,3.6,70,0.00,,---,0.00,VWS V14.01,2013-02-08 02:50:00,
2013-02-07 21:52:00,75.4,64.9,30.03,SW,215,2.7,2.7,70,0.00,,---,0.00,VWS V14.01,2013-02-08 02:52:00,
2013-02-07 21:53:00,75.4,64.9,30.03,SW,215,2.7,2.7,70,0.00,,---,0.00,VWS V14.01,2013-02-08 02:53:00,
2013-02-07 21:55:00,75.4,64.9,30.03,SSW,209,3.1,3.1,70,0.00,,---,0.00,VWS V14.01,2013-02-08 02:55:00,
2013-02-07 21:57:00,75.4,64.9,30.03,SSW,212,2.7,2.7,70,0.00,,---,0.00,VWS V14.01,2013-02-08 02:57:00,
2013-02-07 21:58:00,75.4,64.9,30.03,SSW,212,2.7,2.7,70,0.00,,---,0.00,VWS V14.01,2013-02-08 02:58:00,
2013-02-07 21:59:00,75.4,64.9,30.03,SSW,212,3.1,3.1,70,0.00,,---,0.00,VWS V14.01,2013-02-08 02:59:00,
2013-02-07 22:00:00,75.4,64.9,30.03,SSW,212,0.0,3.1,70,0.00,,---,0.00,VWS V14.01,2013-02-08 03:00:00,
2013-02-07 22:02:00,75.4,64.9,30.03,SSW,212,0.0,0.0,70,0.00,,---,0.00,VWS V14.01,2013-02-08 03:02:00,
2013-02-07 22:03:00,75.4,64.9,30.03,SSW,212,0.0,0.0,70,0.00,,---,0.00,VWS V14.01,2013-02-08 03:03:00,
2013-02-07 22:04:00,75.4,64.9,30.03,SSW,212,0.0,0.0,70,0.00,,---,0.00,VWS V14.01,2013-02-08 03:04:00,
2013-02-07 22:06:00,75.4,64.9,30.03,SSW,212,0.0,0.0,70,0.00,,---,0.00,VWS V14.01,2013-02-08 03:06:00,
2013-02-07 22:07:00,75.4,64.9,30.03,SSW,212,0.0,0.0,70,0.00,,---,0.00,VWS V14.01,2013-02-08 03:07:00,
2013-02-07 22:08:00,75.4,64.9,30.03,SSW,212,0.0,0.0,70,0.00,,---,0.00,VWS V14.01,2013-02-08 03:08:00,
2013-02-07 22:09:00,75.4,64.9,30.03,SSW,212,0.0,0.0,70,0.00,,---,0.00,VWS V14.01,2013-02-08 03:09:00,
2013-02-07 22:11:00,75.4,64.9,30.03,SSW,212,0.0,0.0,70,0.00,,---,0.00,VWS V14.01,2013-02-08 03:11:00,
2013-02-07 22:12:00,75.4,64.9,30.03,SSW,212,0.0,0.0,70,0.00,,---,0.00,VWS V14.01,2013-02-08 03:12:00,
2013-02-07 22:13:00,75.4,64.9,30.03,SSW,212,0.0,0.0,70,0.00,,---,0.00,VWS V14.01,2013-02-08 03:13:00,
2013-02-07 22:14:00,75.4,64.9,30.03,SSW,212,0.0,0.0,70,0.00,,---,0.00,VWS V14.01,2013-02-08 03:14:00,
2013-02-07 22:16:00,75.4,64.9,30.03,SSW,212,0.0,0.0,70,0.00,,---,0.00,VWS V14.01,2013-02-08 03:16:00,
2013-02-07 22:17:00,75.4,64.9,30.03,SSW,213,2.7,2.7,70,0.00,,---,0.00,VWS V14.01,2013-02-08 03:17:00,
2013-02-07 22:18:00,75.4,64.9,30.03,SSW,213,2.7,2.7,70,0.00,,---,0.00,VWS V14.01,2013-02-08 03:18:00,
2013-02-07 22:19:00,75.4,64.9,30.03,SSW,213,2.7,2.7,70,0.00,,---,0.00,VWS V14.01,2013-02-08 03:19:00,
2013-02-07 22:21:00,75.4,64.9,30.03,SSW,213,0.0,0.0,70,0.00,,---,0.00,VWS V14.01,2013-02-08 03:21:00,
2013-02-07 22:23:00,75.4,64.9,30.03,SSW,213,0.0,0.0,70,0.00,,---,0.00,VWS V14.01,2013-02-08 03:23:00,
2013-02-07 22:24:00,75.4,64.9,30.03,SSW,202,2.7,2.7,70,0.00,,---,0.00,VWS V14.01,2013-02-08 03:24:00,
2013-02-07 22:26:00,75.4,64.9,30.03,SSW,202,2.7,2.7,70,0.00,,---,0.00,VWS V14.01,2013-02-08 03:26:00,
2013-02-07 22:28:00,75.4,64.9,30.03,SSW,202,2.7,2.7,70,0.00,,---,0.00,VWS V14.01,2013-02-08 03:28:00,
2013-02-07 22:29:00,75.4,64.9,30.03,SSW,202,2.7,2.7,70,0.00,,---,0.00,VWS V14.01,2013-02-08 03:29:00,
2013-02-07 22:31:00,75.4,64.9,30.03,SSW,199,0.0,0.0,70,0.00,,---,0.00,VWS V14.01,2013-02-08 03:31:00,
2013-02-07 22:33:00,75.4,64.9,30.03,SSW,199,0.0,0.0,70,0.00,,---,0.00,VWS V14.01,2013-02-08 03:33:00,
2013-02-07 22:34:00,75.4,64.9,30.03,SSW,199,0.0,0.0,70,0.00,,---,0.00,VWS V14.01,2013-02-08 03:34:00,
2013-02-07 22:36:00,75.4,64.9,30.03,SSW,199,0.0,0.0,70,0.00,,---,0.00,VWS V14.01,2013-02-08 03:36:00,
2013-02-07 22:38:00,75.4,64.9,30.03,SSW,199,0.0,0.0,70,0.00,,---,0.00,VWS V14.01,2013-02-08 03:38:00,
2013-02-07 22:39:00,75.4,64.9,30.03,SSW,199,0.0,0.0,70,0.00,,---,0.00,VWS V14.01,2013-02-08 03:39:00,
2013-02-07 22:40:00,75.4,64.9,30.03,SSW,199,0.0,0.0,70,0.00,,---,0.00,VWS V14.01,2013-02-08 03:40:00,
2013-02-07 22:41:00,75.4,64.9,30.03,SSW,199,0.0,0.0,70,0.00,,---,0.00,VWS V14.01,2013-02-08 03:41:00,
2013-02-07 22:43:00,75.4,64.9,30.03,SSW,199,0.0,0.0,70,0.00,,---,0.00,VWS V14.01,2013-02-08 03:43:00,
2013-02-07 22:44:00,75.4,64.9,30.03,SSW,199,0.0,0.0,70,0.00,,---,0.00,VWS V14.01,2013-02-08 03:44:00,
2013-02-07 22:45:00,75.4,64.9,30.03,SSW,199,0.0,0.0,70,0.00,,---,0.00,VWS V14.01,2013-02-08 03:45:00,
2013-02-07 22:46:00,75.4,64.9,30.03,SSW,199,0.0,0.0,70,0.00,,---,0.00,VWS V14.01,2013-02-08 03:46:00,
2013-02-07 22:48:00,75.4,64.9,30.03,SSW,199,0.0,0.0,70,0.00,,---,0.00,VWS V14.01,2013-02-08 03:48:00,
2013-02-07 22:49:00,75.4,64.9,30.03,SSW,199,0.0,0.0,70,0.00,,---,0.00,VWS V14.01,2013-02-08 03:49:00,
2013-02-07 22:50:00,75.4,64.9,30.03,SSW,199,0.0,0.0,70,0.00,,---,0.00,VWS V14.01,2013-02-08 03:50:00,
2013-02-07 22:52:00,75.4,64.9,30.03,SSW,199,0.0,0.0,70,0.00,,---,0.00,VWS V14.01,2013-02-08 03:52:00,
2013-02-07 22:53:00,75.4,64.9,30.03,SSW,199,0.0,0.0,70,0.00,,---,0.00,VWS V14.01,2013-02-08 03:53:00,
2013-02-07 22:54:00,75.4,64.9,30.03,SSW,199,0.0,0.0,70,0.00,,---,0.00,VWS V14.01,2013-02-08 03:54:00,
2013-02-07 22:55:00,75.4,64.9,30.03,SSW,199,0.0,0.0,70,0.00,,---,0.00,VWS V14.01,2013-02-08 03:55:00,
2013-02-07 22:57:00,75.4,64.9,30.03,SSW,199,0.0,0.0,70,0.00,,---,0.00,VWS V14.01,2013-02-08 03:57:00,
2013-02-07 22:59:00,75.4,64.9,30.03,SSW,199,0.0,0.0,70,0.00,,---,0.00,VWS V14.01,2013-02-08 03:59:00,
2013-02-07 23:00:00,75.4,64.9,30.03,SSW,199,0.0,0.0,70,0.00,,---,0.00,VWS V14.01,2013-02-08 04:00:00,
2013-02-07 23:02:00,75.4,64.9,30.03,SSW,199,0.0,0.0,70,0.00,,---,0.00,VWS V14.01,2013-02-08 04:02:00,
2013-02-07 23:04:00,75.4,64.9,30.03,SSW,199,0.0,0.0,70,0.00,,---,0.00,VWS V14.01,2013-02-08 04:04:00,
2013-02-07 23:05:00,75.4,64.9,30.03,SSW,199,0.0,0.0,70,0.00,,---,0.00,VWS V14.01,2013-02-08 04:05:00,
2013-02-07 23:07:00,75.4,64.9,30.03,SSW,199,0.0,0.0,70,0.00,,---,0.00,VWS V14.01,2013-02-08 04:07:00,
2013-02-07 23:09:00,75.4,64.9,30.03,SSW,199,0.0,0.0,70,0.00,,---,0.00,VWS V14.01,2013-02-08 04:09:00,
2013-02-07 23:10:00,75.4,64.9,30.03,SSW,199,0.0,0.0,70,0.00,,---,0.00,VWS V14.01,2013-02-08 04:10:00,
2013-02-07 23:12:00,75.4,64.9,30.03,SSW,199,0.0,0.0,70,0.00,,---,0.00,VWS V14.01,2013-02-08 04:12:00,
2013-02-07 23:14:00,75.4,64.9,30.03,SSW,199,0.0,0.0,70,0.00,,---,0.00,VWS V14.01,2013-02-08 04:14:00,
2013-02-07 23:15:00,75.4,64.9,30.03,SSW,204,3.1,3.1,70,0.00,,---,0.00,VWS V14.01,2013-02-08 04:15:00,
2013-02-07 23:17:00,75.4,64.9,30.03,SSW,204,2.7,2.7,70,0.00,,---,0.00,VWS V14.01,2013-02-08 04:17:00,
2013-02-07 23:19:00,75.4,64.9,30.03,SSW,205,2.2,2.2,70,0.00,,---,0.00,VWS V14.01,2013-02-08 04:19:00,
2013-02-07 23:20:00,75.4,64.9,30.03,SSW,205,0.0,0.0,70,0.00,,---,0.00,VWS V14.01,2013-02-08 04:20:00,
2013-02-07 23:22:00,75.4,64.9,30.03,SSW,205,0.0,0.0,70,0.00,,---,0.00,VWS V14.01,2013-02-08 04:22:00,
2013-02-07 23:24:00,75.4,64.9,30.03,SSW,205,2.7,2.7,70,0.00,,---,0.00,VWS V14.01,2013-02-08 04:24:00,
2013-02-07 23:25:00,75.4,64.9,30.03,SSW,205,2.7,2.7,70,0.00,,---,0.00,VWS V14.01,2013-02-08 04:25:00,
2013-02-07 23:26:00,75.4,64.9,30.03,SSW,205,2.7,2.7,70,0.00,,---,0.00,VWS V14.01,2013-02-08 04:26:00,
2013-02-07 23:27:00,75.4,64.9,30.03,SSW,203,0.0,0.0,70,0.00,,---,0.00,VWS V14.01,2013-02-08 04:27:00,
2013-02-07 23:29:00,75.4,64.9,30.03,SSW,203,0.0,0.0,70,0.00,,---,0.00,VWS V14.01,2013-02-08 04:29:00,
2013-02-07 23:30:00,75.4,64.9,30.03,SSW,203,0.0,0.0,70,0.00,,---,0.00,VWS V14.01,2013-02-08 04:30:00,
2013-02-07 23:31:00,75.4,64.9,30.03,SSW,203,0.0,0.0,70,0.00,,---,0.00,VWS V14.01,2013-02-08 04:31:00,
2013-02-07 23:32:00,75.4,64.9,30.03,SSW,203,0.0,0.0,70,0.00,,---,0.00,VWS V14.01,2013-02-08 04:32:00,
2013-02-07 23:34:00,75.4,64.9,30.00,SSW,210,3.1,3.1,70,0.00,,---,0.00,VWS V14.01,2013-02-08 04:34:00,
2013-02-07 23:35:00,75.4,64.9,30.00,SSW,210,3.1,3.1,70,0.00,,---,0.00,VWS V14.01,2013-02-08 04:35:00,
2013-02-07 23:36:00,75.4,64.9,30.00,SSW,213,3.6,3.6,70,0.00,,---,0.00,VWS V14.01,2013-02-08 04:36:00,
2013-02-07 23:37:00,75.4,64.9,30.00,South,178,2.7,3.6,70,0.00,,---,0.00,VWS V14.01,2013-02-08 04:37:00,
2013-02-07 23:39:00,75.4,64.9,30.00,South,178,2.7,2.7,70,0.00,,---,0.00,VWS V14.01,2013-02-08 04:39:00,
2013-02-07 23:40:00,75.4,64.9,30.00,South,178,2.7,2.7,70,0.00,,---,0.00,VWS V14.01,2013-02-08 04:40:00,
2013-02-07 23:41:00,75.4,64.9,30.00,SW,215,4.0,4.0,70,0.00,,---,0.00,VWS V14.01,2013-02-08 04:41:00,
2013-02-07 23:42:00,75.4,64.9,30.00,SW,215,4.0,4.0,70,0.00,,---,0.00,VWS V14.01,2013-02-08 04:42:00,
2013-02-07 23:44:00,75.4,64.9,30.00,SW,219,2.7,4.0,70,0.00,,---,0.00,VWS V14.01,2013-02-08 04:44:00,
2013-02-07 23:46:00,75.4,64.9,30.00,SSW,198,5.4,5.4,70,0.00,,---,0.00,VWS V14.01,2013-02-08 04:46:00,
2013-02-07 23:47:00,75.4,64.9,30.00,SSW,198,5.4,5.4,70,0.00,,---,0.00,VWS V14.01,2013-02-08 04:47:00,
2013-02-07 23:49:00,75.4,64.9,30.00,SSW,192,4.0,4.0,70,0.00,,---,0.00,VWS V14.01,2013-02-08 04:49:00,
2013-02-07 23:51:00,75.4,64.9,30.00,SSW,192,4.0,4.0,70,0.00,,---,0.00,VWS V14.01,2013-02-08 04:51:00,
2013-02-07 23:52:00,75.4,64.9,30.00,SSW,192,4.0,4.0,70,0.00,,---,0.00,VWS V14.01,2013-02-08 04:52:00,
2013-02-07 23:55:00,75.4,64.9,29.97,SSW,197,3.6,4.0,70,0.00,,---,0.00,VWS V14.01,2013-02-08 04:55:00,
2013-02-07 23:56:00,75.4,64.9,29.97,SSW,193,3.1,3.1,70,0.00,,---,0.00,VWS V14.01,2013-02-08 04:56:00,
2013-02-07 23:58:00,75.4,64.9,29.97,SSW,193,3.1,3.1,70,0.00,,---,0.00,VWS V14.01,2013-02-08 04:58:00,